OK1OBR-13 Weather Reports


time (UTC)temp
C
wind
direction
speed
KPH
gust
KPH
rain 1hr
cm
rain 24hr
cm
rain mn
cm
humidity
%
barometer
mb
20260905195800 14 319 3.2 3.2 0.00 0.00 0.36 64 943.2
20260905195700 14 321 1.6 1.6 0.00 0.00 0.36 64 943.3
20260905195600 14 270 1.6 1.6 0.00 0.00 0.36 64 943.5
20260905195500 14 292 1.6 3.2 0.00 0.00 0.36 64 943.2
20260905195401 14 328 1.6 3.2 0.00 0.00 0.36 64 943.4
20260905195300 14 335 1.6 4.8 0.00 0.00 0.36 64 943.3
20260905195200 14 106 3.2 4.8 0.00 0.00 0.36 64 943.5
20260905195100 14 302 1.6 1.6 0.00 0.00 0.36 64 943.5
20260905195000 14 339 1.6 1.6 0.00 0.00 0.36 64 943.3
20260905194900 14 11 1.6 1.6 0.00 0.00 0.36 64 943.4
20260905194800 14 308 1.6 3.2 0.00 0.00 0.36 64 943.2
20260905194701 14 312 1.6 1.6 0.00 0.00 0.36 64 943.4
20260905194601 14 292 1.6 1.6 0.00 0.00 0.36 64 943.3
20260905194500 14 333 0.0 1.6 0.00 0.00 0.36 64 943.3
20260905194401 14 313 0.0 1.6 0.00 0.00 0.36 64 943.4
20260905194300 14 308 1.6 1.6 0.00 0.00 0.36 64 943.4
20260905194200 14 308 1.6 1.6 0.00 0.00 0.36 64 943.4
20260905194101 14 302 1.6 3.2 0.00 0.00 0.36 63 943.6
20260905194001 14 318 1.6 3.2 0.00 0.00 0.36 64 943.6
20260905193900 14 225 1.6 4.8 0.00 0.00 0.36 64 943.4
20260905193800 14 355 0.0 1.6 0.00 0.00 0.36 65 943.2
20260905193700 14 311 0.0 1.6 0.00 0.00 0.36 65 943.4
20260905193600 14 318 0.0 1.6 0.00 0.00 0.36 65 943.2
20260905193500 14 298 0.0 1.6 0.00 0.00 0.36 65 943.3
20260905193400 14 316 0.0 1.6 0.00 0.00 0.36 65 943.3
20260905193300 14 316 0.0 1.6 0.00 0.00 0.36 64 943.3
20260905193201 14 346 0.0 1.6 0.00 0.00 0.36 65 943.3
20260905193100 14 103 0.0 1.6 0.00 0.00 0.36 64 943.3
20260905193000 14 306 1.6 1.6 0.00 0.00 0.36 64 943.2
20260905192900 15 318 0.0 1.6 0.00 0.00 0.36 64 943.2
20260905192800 15 12 0.0 1.6 0.00 0.00 0.36 64 943.2
20260905192700 15 332 1.6 1.6 0.00 0.00 0.36 64 943.3
20260905192600 15 300 0.0 1.6 0.00 0.00 0.36 64 943.2
20260905192500 15 320 0.0 1.6 0.00 0.00 0.36 64 943.1
20260905192400 15 321 1.6 1.6 0.00 0.00 0.36 64 943.1
20260905192300 15 309 1.6 1.6 0.00 0.00 0.36 64 943.4
20260905192200 14 311 1.6 1.6 0.00 0.00 0.36 64 943.2
20260905192100 15 313 1.6 1.6 0.00 0.00 0.36 64 943.2
20260905192001 15 332 0.0 1.6 0.00 0.00 0.36 64 943.3
20260905191900 15 300 0.0 1.6 0.00 0.00 0.36 64 943.1
20260905191801 15 328 0.0 1.6 0.00 0.00 0.36 64 943.2
20260905191700 15 318 0.0 1.6 0.00 0.00 0.36 64 943.2
20260905191601 15 331 0.0 1.6 0.00 0.00 0.36 63 943.2
20260905191500 15 357 1.6 1.6 0.00 0.00 0.36 63 943.2
20260905191400 15 320 0.0 1.6 0.00 0.00 0.36 63 943.3
20260905191300 15 316 0.0 1.6 0.00 0.00 0.36 63 943.3
20260905191201 15 323 0.0 1.6 0.00 0.00 0.36 63 943.2
20260905191101 15 305 1.6 1.6 0.00 0.00 0.36 63 943.2
20260905191001 15 320 0.0 1.6 0.00 0.00 0.36 63 943.3
20260905190901 15 318 0.0 0.0 0.00 0.00 0.36 63 943.2
20260905190800 15 318 0.0 0.0 0.00 0.00 0.36 63 943.1
20260905190700 15 317 0.0 1.6 0.00 0.00 0.36 63 943.2
20260905190600 15 316 0.0 1.6 0.00 0.00 0.36 63 943.2
20260905190500 15 323 0.0 1.6 0.00 0.00 0.36 62 943.2
20260905190400 15 318 0.0 0.0 0.00 0.00 0.36 62 942.8
20260905190300 15 318 0.0 0.0 0.00 0.00 0.36 62 943.2
20260905190200 15 318 0.0 0.0 0.00 0.00 0.36 62 943.1
20260905190100 15 318 0.0 1.6 0.00 0.00 0.36 62 943.0
20260905190001 15 318 0.0 1.6 0.00 0.00 0.36 62 943.2
20260905185900 15 316 0.0 0.0 0.00 0.00 0.36 62 943.1
20260905185801 15 328 0.0 1.6 0.00 0.00 0.36 62 943.2
20260905185700 15 317 0.0 1.6 0.00 0.00 0.36 62 943.3
20260905185600 15 343 0.0 1.6 0.00 0.00 0.36 62 943.0
20260905185500 15 337 0.0 1.6 0.00 0.00 0.36 62 943.0
20260905185401 15 310 0.0 1.6 0.00 0.00 0.36 62 943.1
20260905185300 15 312 0.0 1.6 0.00 0.00 0.36 62 943.0
20260905185200 15 319 0.0 1.6 0.00 0.00 0.36 62 943.1
20260905185100 15 346 0.0 3.2 0.00 0.00 0.36 62 943.1
20260905185000 15 339 3.2 3.2 0.00 0.00 0.36 62 943.0
20260905184900 15 359 1.6 3.2 0.00 0.00 0.36 62 943.1
20260905184800 15 345 1.6 3.2 0.00 0.00 0.36 62 943.1
20260905184700 15 345 1.6 3.2 0.00 0.00 0.36 61 943.0
20260905184600 15 298 1.6 3.2 0.00 0.00 0.36 61 943.0
20260905184500 15 300 3.2 3.2 0.00 0.00 0.36 61 943.0
20260905184400 15 324 3.2 3.2 0.00 0.00 0.36 61 942.9
20260905184300 15 308 1.6 3.2 0.00 0.00 0.36 62 943.0
20260905184200 15 26 1.6 3.2 0.00 0.00 0.36 61 943.0
20260905184100 15 26 1.6 3.2 0.00 0.00 0.36 61 943.0
20260905184000 15 335 3.2 3.2 0.00 0.00 0.36 61 942.8
20260905183900 15 327 3.2 3.2 0.00 0.00 0.36 61 942.9
20260905183800 15 326 1.6 3.2 0.00 0.00 0.36 61 942.9
20260905183700 15 343 1.6 3.2 0.00 0.00 0.36 61 942.8
20260905183601 15 320 3.2 3.2 0.00 0.00 0.36 61 942.8
20260905183500 15 336 3.2 3.2 0.00 0.00 0.36 61 943.1
20260905183401 15 341 3.2 4.8 0.00 0.00 0.36 61 943.0
20260905183300 15 329 3.2 4.8 0.00 0.00 0.36 61 942.7
20260905183200 15 332 3.2 3.2 0.00 0.00 0.36 61 942.9
20260905183100 15 337 3.2 3.2 0.00 0.00 0.36 61 942.8
20260905183000 15 324 3.2 3.2 0.00 0.00 0.36 61 942.7
20260905182900 15 324 3.2 4.8 0.00 0.00 0.36 61 942.7
20260905182800 15 322 3.2 3.2 0.00 0.00 0.36 61 942.8
20260905182700 15 326 3.2 3.2 0.00 0.00 0.36 61 942.7
20260905182600 15 345 3.2 3.2 0.00 0.00 0.36 61 942.9
20260905182500 15 333 3.2 4.8 0.00 0.00 0.36 61 942.9
20260905182401 15 314 3.2 4.8 0.00 0.00 0.36 61 942.7
20260905182300 15 304 3.2 3.2 0.00 0.00 0.36 61 942.5
20260905182201 15 316 3.2 4.8 0.00 0.00 0.36 61 942.7
20260905182101 15 353 3.2 4.8 0.00 0.00 0.36 61 942.9
20260905182001 15 338 3.2 4.8 0.00 0.00 0.36 61 942.9
20260905181900 15 327 1.6 4.8 0.00 0.00 0.36 61 942.9
20260905181800 15 340 3.2 4.8 0.00 0.00 0.36 61 942.7
20260905181700 15 334 3.2 4.8 0.00 0.00 0.36 61 942.9
20260905181600 15 350 3.2 4.8 0.00 0.00 0.36 61 942.8
20260905181500 15 349 3.2 4.8 0.00 0.00 0.36 61 942.7
20260905181400 15 348 3.2 4.8 0.00 0.00 0.36 61 942.6
20260905181300 15 293 3.2 4.8 0.00 0.00 0.36 61 942.6
20260905181200 15 338 1.6 4.8 0.00 0.00 0.36 61 942.7
20260905181101 15 332 3.2 4.8 0.00 0.00 0.36 61 942.6
20260905181000 15 19 3.2 4.8 0.00 0.00 0.36 61 942.7
20260905180901 15 0 3.2 4.8 0.00 0.00 0.36 61 942.8
20260905180800 15 350 3.2 4.8 0.00 0.00 0.36 60 942.5
20260905180701 15 326 3.2 4.8 0.00 0.00 0.36 60 942.6
20260905180600 15 339 3.2 4.8 0.00 0.00 0.36 60 942.7
20260905180501 15 307 3.2 4.8 0.00 0.00 0.36 60 942.3
20260905180400 15 324 1.6 4.8 0.00 0.00 0.36 60 942.5
20260905180300 15 310 3.2 4.8 0.00 0.00 0.36 60 942.7
20260905180200 15 308 3.2 4.8 0.00 0.00 0.36 60 942.4
20260905180100 15 327 3.2 4.8 0.00 0.00 0.36 61 942.5
20260905180000 15 344 1.6 4.8 0.00 0.00 0.36 61 942.4
20260905175901 15 350 3.2 3.2 0.00 0.00 0.36 61 942.4
20260905175801 15 331 1.6 3.2 0.00 0.00 0.36 61 942.4
20260905175701 15 316 1.6 4.8 0.00 0.00 0.36 61 942.4
20260905175600 15 348 3.2 4.8 0.00 0.00 0.36 61 942.3
20260905175501 15 117 1.6 4.8 0.00 0.00 0.36 61 942.4
20260905175400 15 286 3.2 4.8 0.00 0.00 0.36 60 942.4
20260905175300 15 325 3.2 4.8 0.00 0.00 0.36 60 942.2
20260905175200 15 327 3.2 4.8 0.00 0.00 0.36 60 942.2
20260905175101 15 263 1.6 4.8 0.00 0.00 0.36 61 942.4
20260905175001 15 42 1.6 4.8 0.00 0.00 0.36 60 942.3
20260905174900 15 358 3.2 4.8 0.00 0.00 0.36 60 942.3
20260905174801 15 319 1.6 3.2 0.00 0.00 0.36 61 942.4
20260905174700 15 333 3.2 4.8 0.00 0.00 0.36 60 942.0
20260905174600 15 339 3.2 4.8 0.00 0.00 0.36 60 942.2
20260905174500 15 220 1.6 4.8 0.00 0.00 0.36 60 942.1
20260905174400 15 233 1.6 4.8 0.00 0.00 0.36 61 942.2
20260905174300 15 333 4.8 4.8 0.00 0.00 0.36 60 942.2
20260905174200 15 356 1.6 4.8 0.00 0.00 0.36 61 942.2
20260905174100 15 299 1.6 4.8 0.00 0.00 0.36 61 942.3
20260905174000 15 299 1.6 4.8 0.00 0.00 0.36 61 942.3
20260905173900 15 318 1.6 4.8 0.00 0.00 0.36 61 942.2
20260905173800 15 323 3.2 4.8 0.00 0.00 0.36 61 942.0
20260905173700 15 344 3.2 3.2 0.00 0.00 0.36 62 942.1
20260905173600 15 312 3.2 4.8 0.00 0.00 0.36 61 942.2
20260905173500 15 324 3.2 4.8 0.00 0.00 0.36 61 942.2
20260905173400 15 343 1.6 4.8 0.00 0.00 0.36 61 942.1
20260905173300 15 340 3.2 4.8 0.00 0.00 0.36 61 942.2
20260905173200 15 321 3.2 3.2 0.00 0.00 0.36 61 942.0
20260905173100 15 326 3.2 3.2 0.00 0.00 0.36 62 942.2
20260905173000 15 320 1.6 4.8 0.00 0.00 0.36 61 942.2
20260905172900 15 326 3.2 4.8 0.00 0.00 0.36 61 942.2
20260905172800 15 332 3.2 4.8 0.00 0.00 0.36 61 942.1
20260905172700 15 353 1.6 3.2 0.00 0.00 0.36 61 942.2
20260905172601 15 337 1.6 3.2 0.00 0.00 0.36 61 942.1
20260905172502 15 301 3.2 4.8 0.00 0.00 0.36 61 942.1
20260905172402 15 352 3.2 4.8 0.00 0.00 0.36 61 942.1
20260905172305 16 335 3.2 4.8 0.00 0.00 0.36 61 942.0
20260905172202 16 318 3.2 4.8 0.00 0.00 0.36 61 942.0
20260905172102 16 331 3.2 4.8 0.00 0.00 0.36 61 942.1
20260905172002 16 280 3.2 6.4 0.00 0.00 0.36 60 942.1
20260905171901 16 319 4.8 4.8 0.00 0.00 0.36 60 942.1
20260905171800 16 304 3.2 4.8 0.00 0.00 0.36 61 942.0
20260905171701 16 221 1.6 3.2 0.00 0.00 0.36 61 942.0
20260905171601 16 329 1.6 3.2 0.00 0.00 0.36 61 942.1
20260905171500 16 339 1.6 3.2 0.00 0.00 0.36 61 942.0
20260905171401 16 349 3.2 3.2 0.00 0.00 0.36 61 941.8
20260905171300 16 313 1.6 3.2 0.00 0.00 0.36 60 941.8
20260905171200 16 16 1.6 4.8 0.00 0.00 0.36 60 941.9
20260905171100 16 329 3.2 4.8 0.00 0.00 0.36 60 941.9
20260905171001 16 326 1.6 3.2 0.00 0.00 0.36 60 941.9
20260905170900 16 327 1.6 4.8 0.00 0.00 0.36 60 941.9
20260905170802 16 324 3.2 4.8 0.00 0.00 0.36 59 941.7
20260905170700 16 279 3.2 6.4 0.00 0.00 0.36 59 941.9
20260905170600 16 275 4.8 6.4 0.00 0.00 0.36 59 942.0
20260905170500 16 271 0.0 4.8 0.00 0.00 0.36 60 941.7
20260905170400 16 184 1.6 3.2 0.00 0.00 0.36 60 941.8
20260905170300 16 343 1.6 4.8 0.00 0.00 0.36 60 941.8
20260905170200 16 341 3.2 4.8 0.00 0.00 0.36 60 941.7
20260905170100 16 314 3.2 4.8 0.00 0.00 0.36 59 941.8
20260905170001 16 25 0.0 3.2 0.00 0.00 0.36 60 941.6
20260905165901 16 323 1.6 3.2 0.00 0.00 0.36 60 941.6
20260905165801 16 329 1.6 3.2 0.00 0.00 0.36 60 941.7
20260905165700 16 357 1.6 4.8 0.00 0.00 0.36 59 941.8
20260905165601 16 345 1.6 4.8 0.00 0.00 0.36 59 941.7
20260905165500 16 91 0.0 3.2 0.00 0.00 0.36 59 941.7
20260905165400 16 325 1.6 3.2 0.00 0.00 0.36 59 941.5
20260905165300 16 330 0.0 4.8 0.00 0.00 0.36 59 941.7
20260905165200 16 124 3.2 4.8 0.00 0.00 0.36 58 941.7
20260905165101 16 327 1.6 3.2 0.00 0.00 0.36 58 941.8
20260905165001 16 311 1.6 3.2 0.00 0.00 0.36 58 941.7
20260905164900 16 333 1.6 3.2 0.00 0.00 0.36 59 941.8
20260905164801 16 232 3.2 3.2 0.00 0.00 0.36 58 941.7
20260905164700 16 332 1.6 3.2 0.00 0.00 0.36 58 941.6
20260905164601 16 274 1.6 4.8 0.00 0.00 0.36 58 941.5
20260905164501 16 120 1.6 4.8 0.00 0.00 0.36 59 941.6
20260905164401 16 306 3.2 3.2 0.00 0.00 0.36 59 941.7
20260905164302 16 233 1.6 3.2 0.00 0.00 0.36 59 941.4
20260905164202 16 136 1.6 4.8 0.00 0.00 0.36 59 941.5
20260905164100 16 287 1.6 4.8 0.00 0.00 0.36 59 941.5
20260905164000 16 299 3.2 4.8 0.00 0.00 0.36 59 941.7
20260905163900 16 299 3.2 4.8 0.00 0.00 0.36 59 941.7
20260905163800 16 352 1.6 4.8 0.00 0.00 0.36 59 941.6
20260905163700 16 311 1.6 3.2 0.00 0.00 0.36 59 941.3
20260905163600 16 58 1.6 4.8 0.00 0.00 0.36 59 941.7
20260905163500 16 327 3.2 4.8 0.00 0.00 0.36 59 941.5
20260905163402 16 301 3.2 4.8 0.00 0.00 0.36 58 941.5
20260905163301 16 11 1.6 4.8 0.00 0.00 0.36 59 941.5
20260905163200 16 297 3.2 4.8 0.00 0.00 0.36 58 941.5
20260905163100 16 305 1.6 6.4 0.00 0.00 0.36 59 941.5
20260905163000 16 324 4.8 6.4 0.00 0.00 0.36 58 941.4
20260905162901 16 291 4.8 6.4 0.00 0.00 0.36 58 941.6
20260905162801 16 334 3.2 6.4 0.00 0.00 0.36 58 941.6
20260905162701 16 334 3.2 4.8 0.00 0.00 0.36 58 941.5
20260905162601 16 310 3.2 4.8 0.00 0.00 0.36 59 941.5
20260905162500 16 316 3.2 6.4 0.00 0.00 0.36 58 941.5
20260905162400 16 328 3.2 6.4 0.00 0.00 0.36 58 941.5
20260905162305 16 330 3.2 4.8 0.00 0.00 0.36 58 941.5
20260905162200 16 27 1.6 4.8 0.00 0.00 0.36 59 941.4
20260905162101 17 349 1.6 4.8 0.00 0.00 0.36 59 941.5
20260905162000 17 332 3.2 4.8 0.00 0.00 0.36 59 941.4
20260905161900 17 340 3.2 4.8 0.00 0.00 0.36 60 941.4
20260905161801 17 82 3.2 4.8 0.00 0.00 0.36 59 941.3
20260905161701 17 343 3.2 4.8 0.00 0.00 0.36 60 941.5
20260905161600 17 128 1.6 4.8 0.00 0.00 0.36 59 941.5
20260905161500 17 291 3.2 4.8 0.00 0.00 0.36 59 941.5
20260905161400 17 323 4.8 4.8 0.00 0.00 0.36 58 941.3
20260905161301 17 288 1.6 3.2 0.00 0.00 0.36 59 941.2
20260905161200 17 335 1.6 4.8 0.00 0.00 0.36 59 941.4
20260905161100 17 330 3.2 6.4 0.00 0.00 0.36 60 941.2
20260905161000 17 317 4.8 6.4 0.00 0.00 0.36 58 941.2
20260905160900 17 320 4.8 4.8 0.00 0.00 0.36 59 941.3
20260905160800 17 328 4.8 4.8 0.00 0.00 0.36 59 941.3
20260905160700 17 329 4.8 4.8 0.00 0.00 0.36 58 941.1
20260905160601 17 305 1.6 4.8 0.00 0.00 0.36 58 941.4
20260905160500 17 3 3.2 4.8 0.00 0.00 0.36 59 941.4
20260905160402 17 328 1.6 3.2 0.00 0.00 0.36 59 941.2
20260905160300 17 338 1.6 3.2 0.00 0.00 0.36 59 941.1
20260905160200 17 318 1.6 3.2 0.00 0.00 0.36 58 941.0
20260905160101 17 302 1.6 3.2 0.00 0.00 0.36 58 941.2
20260905160000 17 312 1.6 1.6 0.00 0.00 0.36 59 941.0
20260905155900 17 317 1.6 1.6 0.00 0.00 0.36 58 941.2
20260905155801 17 312 1.6 3.2 0.00 0.00 0.36 59 941.0
20260905155700 17 295 1.6 4.8 0.00 0.00 0.36 58 941.1
20260905155602 17 173 1.6 4.8 0.00 0.00 0.36 59 941.1
20260905155500 17 334 1.6 1.6 0.00 0.00 0.36 59 941.0
20260905155400 17 264 1.6 1.6 0.00 0.00 0.36 58 941.1
20260905155300 17 292 1.6 4.8 0.00 0.00 0.36 58 941.0
20260905155200 17 300 1.6 4.8 0.00 0.00 0.36 58 940.9
20260905155101 17 331 1.6 3.2 0.00 0.00 0.36 58 941.1
20260905155001 17 329 1.6 3.2 0.00 0.00 0.36 57 941.1
20260905154900 17 285 1.6 1.6 0.00 0.00 0.36 58 941.0
20260905154800 17 303 1.6 1.6 0.00 0.00 0.36 58 941.1
20260905154700 17 286 1.6 1.6 0.00 0.00 0.36 58 940.9
20260905154601 17 304 1.6 3.2 0.00 0.00 0.36 58 941.1
20260905154501 17 310 1.6 3.2 0.00 0.00 0.36 58 941.1
20260905154400 17 302 1.6 3.2 0.00 0.00 0.36 57 941.1
20260905154301 17 302 1.6 3.2 0.00 0.00 0.36 58 941.0
20260905154200 17 283 1.6 3.2 0.00 0.00 0.36 57 941.0
20260905154101 17 313 1.6 3.2 0.00 0.00 0.36 57 940.8
20260905154000 17 296 3.2 3.2 0.00 0.00 0.36 57 941.1
20260905153900 17 296 1.6 3.2 0.00 0.00 0.36 57 941.0
20260905153801 17 296 1.6 3.2 0.00 0.00 0.36 57 941.0
20260905153700 17 247 1.6 3.2 0.00 0.00 0.36 57 940.9
20260905153600 17 291 1.6 3.2 0.00 0.00 0.36 57 941.1
20260905153500 17 272 1.6 1.6 0.00 0.00 0.36 57 941.1
20260905153401 17 306 1.6 1.6 0.00 0.00 0.36 57 941.3
20260905153300 17 303 1.6 3.2 0.00 0.00 0.36 58 941.1
20260905153201 18 286 1.6 3.2 0.00 0.00 0.36 57 941.1
20260905153100 18 295 1.6 3.2 0.00 0.00 0.36 57 941.3
20260905153000 18 291 1.6 3.2 0.00 0.00 0.36 57 941.2
20260905152901 18 308 1.6 1.6 0.00 0.00 0.36 57 941.2
20260905152800 18 249 1.6 1.6 0.00 0.00 0.36 57 940.9
20260905152701 18 293 1.6 3.2 0.00 0.00 0.36 58 941.2
20260905152601 18 313 1.6 3.2 0.00 0.00 0.36 57 941.2
20260905152501 18 254 1.6 1.6 0.00 0.00 0.36 58 941.0
20260905152400 18 258 1.6 1.6 0.00 0.00 0.36 57 941.2
20260905152301 18 302 1.6 3.2 0.00 0.00 0.36 57 941.2
20260905152200 17 279 1.6 3.2 0.00 0.00 0.36 57 941.3
20260905152100 17 299 1.6 1.6 0.00 0.00 0.36 57 941.2
20260905152001 17 285 1.6 3.2 0.00 0.00 0.36 57 941.1
20260905151900 17 274 1.6 3.2 0.00 0.00 0.36 57 941.1
20260905151800 17 301 1.6 3.2 0.00 0.00 0.36 56 941.0
20260905151700 17 282 1.6 4.8 0.00 0.00 0.36 57 941.1
20260905151601 17 280 1.6 3.2 0.00 0.00 0.36 58 940.8
20260905151500 17 305 1.6 1.6 0.00 0.00 0.36 57 941.0
20260905151401 17 303 1.6 3.2 0.00 0.00 0.36 57 941.1
20260905151300 17 306 1.6 3.2 0.00 0.00 0.36 57 941.2
20260905151200 17 294 3.2 3.2 0.00 0.00 0.36 56 941.1
20260905151100 17 226 1.6 3.2 0.00 0.00 0.36 58 940.8
20260905151001 17 298 1.6 1.6 0.00 0.00 0.36 58 941.0
20260905150900 17 318 1.6 1.6 0.00 0.00 0.36 59 941.0
20260905150800 17 319 1.6 1.6 0.00 0.00 0.36 58 941.2
20260905150700 17 266 1.6 1.6 0.00 0.00 0.36 58 941.0
20260905150601 17 283 1.6 1.6 0.00 0.00 0.36 57 940.8
20260905150501 17 305 1.6 1.6 0.00 0.00 0.36 58 940.7
20260905150400 18 280 1.6 1.6 0.00 0.00 0.36 57 940.9
20260905150300 18 238 1.6 1.6 0.00 0.00 0.36 57 940.9
20260905150200 18 274 0.0 1.6 0.00 0.00 0.36 56 940.9
20260905150000 18 238 1.6 1.6 0.00 0.00 0.36 57 941.1
20260905145901 18 297 1.6 1.6 0.00 0.00 0.36 57 941.0
20260905145800 18 268 1.6 1.6 0.00 0.00 0.36 57 940.6
20260905145701 18 325 1.6 3.2 0.00 0.00 0.36 58 940.8
20260905145600 18 240 1.6 3.2 0.00 0.00 0.36 57 940.9
20260905145500 18 299 1.6 3.2 0.00 0.00 0.36 57 941.0
20260905145400 18 262 1.6 1.6 0.00 0.00 0.36 57 941.0
20260905145301 18 236 0.0 1.6 0.00 0.00 0.36 57 940.8
20260905145200 18 252 0.0 1.6 0.00 0.00 0.36 58 941.0
20260905145100 18 265 1.6 3.2 0.00 0.00 0.36 57 940.9
20260905145000 18 279 1.6 3.2 0.00 0.00 0.36 56 940.9
20260905144900 18 261 1.6 3.2 0.00 0.00 0.36 55 940.9
20260905144800 18 323 1.6 3.2 0.00 0.00 0.36 56 941.0
20260905144701 18 234 1.6 1.6 0.00 0.00 0.36 56 941.1
20260905144600 18 302 0.0 3.2 0.00 0.00 0.36 58 940.9
20260905144501 18 308 1.6 3.2 0.00 0.00 0.36 57 941.0
20260905144401 18 276 1.6 3.2 0.00 0.00 0.36 56 940.7
20260905144301 18 256 1.6 3.2 0.00 0.00 0.36 57 940.8
20260905144200 18 355 1.6 3.2 0.00 0.00 0.36 58 941.0
20260905144101 18 309 1.6 3.2 0.00 0.00 0.36 57 941.0
20260905144000 18 259 1.6 1.6 0.00 0.00 0.36 58 941.0
20260905143900 18 291 1.6 3.2 0.00 0.00 0.36 57 940.8
20260905143801 18 226 1.6 3.2 0.00 0.00 0.36 58 940.9
20260905143700 18 226 1.6 3.2 0.00 0.00 0.36 58 940.9
20260905143601 17 316 1.6 1.6 0.00 0.00 0.36 57 941.0
20260905143501 17 315 1.6 1.6 0.00 0.00 0.36 58 940.9
20260905143401 17 281 0.0 1.6 0.00 0.00 0.36 58 940.9
20260905143300 17 267 0.0 1.6 0.00 0.00 0.36 60 940.9
20260905143200 17 265 0.0 1.6 0.00 0.00 0.36 60 941.2
20260905143100 17 330 1.6 3.2 0.00 0.00 0.36 58 940.9
20260905143000 17 312 1.6 3.2 0.00 0.00 0.36 58 941.1
20260905142900 17 267 1.6 3.2 0.00 0.00 0.36 58 941.0
20260905142800 17 282 1.6 3.2 0.00 0.00 0.36 58 941.1
20260905142700 17 270 1.6 3.2 0.00 0.00 0.36 59 941.0
20260905142602 17 302 3.2 3.2 0.00 0.00 0.36 58 941.0
20260905142500 17 301 1.6 1.6 0.00 0.00 0.36 59 941.0
20260905142401 17 249 1.6 1.6 0.00 0.00 0.36 60 940.9
20260905142300 17 298 1.6 3.2 0.00 0.00 0.36 58 941.1
20260905142201 17 275 3.2 3.2 0.00 0.00 0.36 58 941.0
20260905142100 17 237 1.6 1.6 0.00 0.00 0.36 58 941.0
20260905142000 17 292 1.6 1.6 0.00 0.00 0.36 60 941.1
20260905141900 17 272 0.0 1.6 0.00 0.00 0.36 60 941.1
20260905141800 17 320 1.6 1.6 0.00 0.00 0.36 59 941.1
20260905141701 17 316 0.0 1.6 0.00 0.00 0.36 60 940.9
20260905141600 17 318 1.6 3.2 0.00 0.00 0.36 60 940.9
20260905141500 17 291 1.6 1.6 0.00 0.00 0.36 60 941.1
20260905141401 17 310 1.6 1.6 0.00 0.00 0.36 60 941.1
20260905141301 17 252 0.0 4.8 0.00 0.00 0.36 60 941.0
20260905141200 17 229 3.2 4.8 0.00 0.00 0.36 60 941.0
20260905141101 17 299 1.6 3.2 0.00 0.00 0.36 59 940.9
20260905141000 17 284 3.2 4.8 0.00 0.00 0.36 58 940.9
20260905140900 17 302 3.2 4.8 0.00 0.00 0.36 59 941.1
20260905140800 17 308 1.6 3.2 0.00 0.00 0.36 58 940.9
20260905140700 17 307 1.6 3.2 0.00 0.00 0.36 59 940.9
20260905140600 17 313 1.6 1.6 0.00 0.00 0.36 59 941.0
20260905140501 17 328 1.6 3.2 0.00 0.00 0.36 59 940.8
20260905140400 17 304 1.6 3.2 0.00 0.00 0.36 59 941.1
20260905140300 17 295 1.6 3.2 0.00 0.00 0.36 59 941.0
20260905140201 17 303 1.6 4.8 0.00 0.00 0.36 60 940.8
20260905140101 17 294 1.6 4.8 0.00 0.00 0.36 59 941.0
20260905140000 18 301 0.0 1.6 0.00 0.00 0.36 59 941.0
20260905135900 18 314 1.6 1.6 0.00 0.00 0.36 58 941.2
20260905135800 18 256 1.6 1.6 0.00 0.00 0.36 58 941.0
20260905135700 18 336 1.6 1.6 0.00 0.00 0.36 58 941.1
20260905135600 18 309 1.6 1.6 0.00 0.00 0.36 57 941.1
20260905135500 18 297 0.0 1.6 0.00 0.00 0.36 57 941.1
20260905135400 18 324 0.0 1.6 0.00 0.00 0.36 56 940.9
20260905135301 18 251 1.6 1.6 0.00 0.00 0.36 56 941.0
20260905135200 18 346 0.0 1.6 0.00 0.00 0.36 57 941.0
20260905135101 18 255 1.6 3.2 0.00 0.00 0.36 56 941.2
20260905135000 18 17 1.6 3.2 0.00 0.00 0.36 56 941.0
20260905134902 18 271 1.6 1.6 0.00 0.00 0.36 56 941.1
20260905134801 18 258 1.6 3.2 0.00 0.00 0.36 55 940.9
20260905134700 18 269 1.6 3.2 0.00 0.00 0.36 55 941.1
20260905134601 18 242 1.6 3.2 0.00 0.00 0.36 55 940.9
20260905134501 19 268 1.6 3.2 0.00 0.00 0.36 54 941.1
20260905134400 19 296 1.6 3.2 0.00 0.00 0.36 54 941.1
20260905134301 18 307 1.6 4.8 0.00 0.00 0.36 55 941.1
20260905134201 18 300 3.2 3.2 0.00 0.00 0.36 55 940.9
20260905134101 18 292 1.6 3.2 0.00 0.00 0.36 56 941.0
20260905134000 18 270 1.6 1.6 0.00 0.00 0.36 56 941.0
20260905133901 18 354 1.6 3.2 0.00 0.00 0.36 56 941.2
20260905133800 18 270 1.6 3.2 0.00 0.00 0.36 55 941.1
20260905133700 18 290 1.6 4.8 0.00 0.00 0.36 56 941.0
20260905133601 18 290 1.6 4.8 0.00 0.00 0.36 56 941.0
20260905133501 18 295 3.2 4.8 0.00 0.00 0.36 55 941.1
20260905133401 18 300 1.6 3.2 0.00 0.00 0.36 57 941.2
20260905133300 18 288 0.0 3.2 0.00 0.00 0.36 57 941.2
20260905133200 18 311 1.6 4.8 0.00 0.00 0.36 56 941.0
20260905133100 18 305 3.2 3.2 0.00 0.00 0.36 56 941.0
20260905133000 18 296 1.6 1.6 0.00 0.00 0.36 57 940.9
20260905132901 18 308 1.6 1.6 0.00 0.00 0.36 57 941.2
20260905132801 17 289 0.0 1.6 0.00 0.00 0.36 58 940.9
20260905132701 17 250 1.6 1.6 0.00 0.00 0.36 59 941.2
20260905132600 17 239 0.0 3.2 0.00 0.00 0.36 58 941.1
20260905132500 17 314 1.6 3.2 0.00 0.00 0.36 58 941.1
20260905132400 17 248 1.6 3.2 0.00 0.00 0.36 58 941.2
20260905132300 17 298 1.6 3.2 0.00 0.00 0.36 57 941.3
20260905132202 17 286 3.2 3.2 0.00 0.00 0.36 57 941.0
20260905132100 17 255 1.6 1.6 0.00 0.00 0.36 57 941.2
20260905132001 17 244 1.6 1.6 0.00 0.00 0.36 57 941.0
20260905131900 17 61 1.6 4.8 0.00 0.00 0.36 57 941.2
20260905131801 17 319 1.6 4.8 0.00 0.00 0.36 56 941.1
20260905131701 17 304 3.2 4.8 0.00 0.00 0.36 57 941.1
20260905131600 18 291 3.2 4.8 0.00 0.00 0.36 55 941.2
20260905131501 18 304 3.2 4.8 0.00 0.00 0.36 54 941.2
20260905131400 18 280 1.6 4.8 0.00 0.00 0.36 55 941.0
20260905131301 18 277 1.6 1.6 0.00 0.00 0.36 55 940.9
20260905131200 18 271 0.0 3.2 0.00 0.00 0.36 57 941.0
20260905131101 18 282 1.6 3.2 0.00 0.00 0.36 56 940.9
20260905131000 18 251 1.6 1.6 0.00 0.00 0.36 56 941.1
20260905130900 18 308 1.6 3.2 0.00 0.00 0.36 56 941.2
20260905130800 18 260 1.6 3.2 0.00 0.00 0.36 56 941.1
20260905130700 18 226 1.6 3.2 0.00 0.00 0.36 56 941.0
20260905130601 18 283 3.2 4.8 0.00 0.00 0.36 55 941.1
20260905130502 18 237 3.2 4.8 0.00 0.00 0.36 55 940.9
20260905130401 18 247 3.2 4.8 0.00 0.00 0.36 55 941.1
20260905130300 18 236 3.2 4.8 0.00 0.00 0.36 55 940.9
20260905130200 18 250 1.6 4.8 0.00 0.00 0.36 56 941.1
20260905130100 18 304 3.2 4.8 0.00 0.00 0.36 56 941.1
20260905130000 18 302 1.6 1.6 0.00 0.00 0.36 58 941.1
20260905125900 18 262 1.6 4.8 0.00 0.00 0.36 58 941.0
20260905125801 18 244 1.6 4.8 0.00 0.00 0.36 58 941.2
20260905125700 18 236 1.6 1.6 0.00 0.00 0.36 57 941.1
20260905125600 18 275 0.0 1.6 0.00 0.00 0.36 58 941.3
20260905125500 18 310 0.0 1.6 0.00 0.00 0.36 57 941.1
20260905125400 18 318 0.0 1.6 0.00 0.00 0.36 58 941.1
20260905125305 18 305 1.6 1.6 0.00 0.00 0.36 59 941.4
20260905125200 18 310 0.0 1.6 0.00 0.00 0.36 58 941.5
20260905125100 18 291 0.0 1.6 0.00 0.00 0.36 58 941.2
20260905125001 18 309 0.0 1.6 0.00 0.00 0.36 58 941.4
20260905124901 18 195 0.0 1.6 0.00 0.00 0.36 58 941.1
20260905124801 18 262 0.0 1.6 0.00 0.00 0.36 57 941.3
20260905124700 18 272 0.0 4.8 0.00 0.00 0.36 57 941.4
20260905124601 17 265 1.6 4.8 0.00 0.00 0.36 58 941.2
20260905124500 17 293 0.0 1.6 0.00 0.00 0.36 57 941.2
20260905124401 18 259 1.6 3.2 0.00 0.00 0.36 56 941.4
20260905124300 18 302 1.6 3.2 0.00 0.00 0.36 57 941.3
20260905124200 17 316 1.6 3.2 0.00 0.00 0.36 56 941.3
20260905124100 17 278 0.0 1.6 0.00 0.00 0.36 57 941.4
20260905124000 17 240 0.0 1.6 0.00 0.00 0.36 57 941.3
20260905123900 17 237 0.0 1.6 0.00 0.00 0.36 56 941.2
20260905123800 17 273 1.6 1.6 0.00 0.00 0.36 56 941.4
20260905123700 18 293 1.6 3.2 0.00 0.00 0.36 56 941.3
20260905123601 18 293 1.6 3.2 0.00 0.00 0.36 56 941.3
20260905123500 18 314 1.6 3.2 0.00 0.00 0.36 55 941.3
20260905123400 18 231 1.6 3.2 0.00 0.00 0.36 54 941.3
20260905123301 18 281 1.6 3.2 0.00 0.00 0.36 53 941.2
20260905123200 18 322 1.6 1.6 0.00 0.00 0.36 55 941.2
20260905123100 18 290 1.6 3.2 0.00 0.00 0.36 55 941.4
20260905123001 18 231 1.6 3.2 0.00 0.00 0.36 55 941.3
20260905122901 18 187 1.6 3.2 0.00 0.00 0.36 54 941.5
20260905122800 18 322 1.6 3.2 0.00 0.00 0.36 53 941.3
20260905122700 18 278 1.6 3.2 0.00 0.00 0.36 56 941.5
20260905122600 18 219 1.6 3.2 0.00 0.00 0.36 55 941.3
20260905122501 17 283 0.0 1.6 0.00 0.00 0.36 58 941.5
20260905122400 17 240 1.6 3.2 0.00 0.00 0.36 58 941.3
20260905122300 17 325 1.6 4.8 0.00 0.00 0.36 56 941.4
20260905122201 17 279 3.2 3.2 0.00 0.00 0.36 55 941.6
20260905122101 17 309 3.2 3.2 0.00 0.00 0.36 55 941.3
20260905122001 17 268 1.6 3.2 0.00 0.00 0.36 55 941.7
20260905121901 17 314 1.6 1.6 0.00 0.00 0.36 55 941.5
20260905121800 17 251 1.6 3.2 0.00 0.00 0.36 55 941.3
20260905121700 17 274 1.6 4.8 0.00 0.00 0.36 57 941.2
20260905121600 17 318 1.6 4.8 0.00 0.00 0.36 55 941.5
20260905121500 17 244 1.6 4.8 0.00 0.00 0.36 56 941.5
20260905121401 17 317 1.6 3.2 0.00 0.00 0.36 55 941.4
20260905121300 17 267 1.6 3.2 0.00 0.00 0.36 55 941.5
20260905121201 17 338 1.6 3.2 0.00 0.00 0.36 55 941.5
20260905121100 17 279 1.6 4.8 0.00 0.00 0.36 53 941.6
20260905121001 17 305 3.2 3.2 0.00 0.00 0.36 53 941.4
20260905120900 17 300 1.6 3.2 0.00 0.00 0.36 54 941.5
20260905120800 17 293 1.6 3.2 0.00 0.00 0.36 54 941.5
20260905120701 17 304 1.6 4.8 0.00 0.00 0.36 54 941.6
20260905120600 17 196 1.6 4.8 0.00 0.00 0.36 54 941.4
20260905120501 17 278 3.2 4.8 0.00 0.00 0.36 54 941.5
20260905120400 17 297 3.2 4.8 0.00 0.00 0.36 54 941.3
20260905120301 17 336 1.6 4.8 0.00 0.00 0.36 56 941.4
20260905120201 17 302 3.2 4.8 0.00 0.00 0.36 55 941.4
20260905120100 17 254 1.6 3.2 0.00 0.00 0.36 56 941.4
20260905120001 17 304 1.6 3.2 0.00 0.00 0.36 57 941.4
20260905115900 17 316 1.6 3.2 0.00 0.00 0.36 56 941.5
20260905115800 17 194 1.6 3.2 0.00 0.00 0.36 57 941.4
20260905115700 17 281 1.6 3.2 0.00 0.00 0.36 55 941.4
20260905115600 17 282 1.6 3.2 0.00 0.00 0.36 55 941.2
20260905115501 17 302 3.2 4.8 0.00 0.00 0.36 54 941.4
20260905115400 17 281 3.2 4.8 0.00 0.00 0.36 53 941.2
20260905115300 18 333 1.6 3.2 0.00 0.00 0.36 55 941.6
20260905115201 18 277 1.6 3.2 0.00 0.00 0.36 54 941.3
20260905115100 18 263 1.6 3.2 0.00 0.00 0.36 54 941.1
20260905115000 18 297 1.6 4.8 0.00 0.00 0.36 53 941.3
20260905114900 18 266 1.6 3.2 0.00 0.00 0.36 56 941.4
20260905114800 18 280 1.6 3.2 0.00 0.00 0.36 54 941.3
20260905114700 18 283 1.6 3.2 0.00 0.00 0.36 53 941.1
20260905114601 17 299 1.6 3.2 0.00 0.00 0.36 62 941.4
20260905114503 17 299 1.6 3.2 0.00 0.00 0.36 62 941.4
20260905114402 17 299 1.6 3.2 0.00 0.00 0.36 62 941.4
20260905114301 17 299 1.6 3.2 0.00 0.00 0.36 62 941.4
20260905114201 17 299 1.6 3.2 0.00 0.00 0.36 62 941.4
20260905114101 17 299 1.6 3.2 0.00 0.00 0.36 62 941.4
20260905114000 17 299 1.6 3.2 0.00 0.00 0.36 62 941.4
20260905113900 17 299 1.6 3.2 0.00 0.00 0.36 62 941.4
20260905113801 17 299 1.6 3.2 0.00 0.00 0.36 62 941.4
20260905113700 17 299 1.6 3.2 0.00 0.00 0.36 62 941.4
20260905113601 17 299 1.6 3.2 0.00 0.00 0.36 62 941.4
20260905113500 17 299 1.6 3.2 0.00 0.00 0.36 62 941.4
20260905113401 17 299 1.6 3.2 0.00 0.00 0.36 62 941.4
20260905113300 17 299 1.6 3.2 0.00 0.00 0.36 62 941.4
20260905113200 17 299 1.6 3.2 0.00 0.00 0.36 62 941.4
20260905113100 17 299 1.6 3.2 0.00 0.00 0.36 62 941.4
20260905113000 17 299 1.6 3.2 0.00 0.00 0.36 62 941.4
20260905112900 17 299 1.6 3.2 0.00 0.00 0.36 62 941.4
20260905112800 17 299 1.6 3.2 0.00 0.00 0.36 62 941.4
20260905112700 17 299 1.6 3.2 0.00 0.00 0.36 62 941.4
20260905112601 17 299 1.6 3.2 0.00 0.00 0.36 62 941.4
20260905112500 17 290 1.6 3.2 0.00 0.00 0.36 61 941.6
20260905112400 17 311 1.6 1.6 0.00 0.00 0.36 61 941.5
20260905112300 17 283 1.6 1.6 0.00 0.00 0.36 61 941.6
20260905112200 17 291 1.6 3.2 0.00 0.00 0.36 60 941.4
20260905112100 17 248 1.6 3.2 0.00 0.00 0.36 61 941.4
20260905112000 17 256 1.6 3.2 0.00 0.00 0.36 61 941.5
20260905111901 17 249 1.6 1.6 0.00 0.00 0.36 61 941.5
20260905111800 17 249 1.6 3.2 0.00 0.00 0.36 60 941.6
20260905111700 17 270 1.6 3.2 0.00 0.00 0.36 59 941.3
20260905111600 17 250 1.6 3.2 0.00 0.00 0.36 59 941.5
20260905111500 17 319 1.6 3.2 0.00 0.00 0.36 61 941.4
20260905111400 17 278 1.6 3.2 0.00 0.00 0.36 61 941.5
20260905111300 17 296 3.2 4.8 0.00 0.00 0.36 59 941.5
20260905111200 17 301 3.2 4.8 0.00 0.00 0.36 59 941.7
20260905111100 17 315 1.6 3.2 0.00 0.00 0.36 59 941.4
20260905111000 17 255 1.6 3.2 0.00 0.00 0.36 58 941.4
20260905110901 17 307 1.6 3.2 0.00 0.00 0.36 60 941.5
20260905110800 17 307 1.6 3.2 0.00 0.00 0.36 60 941.5
20260905110700 17 278 1.6 3.2 0.00 0.00 0.36 60 941.6
20260905110601 17 292 1.6 3.2 0.00 0.00 0.36 59 941.5
20260905110500 17 258 1.6 3.2 0.00 0.00 0.36 59 941.7
20260905110400 17 275 1.6 3.2 0.00 0.00 0.36 59 941.5
20260905110300 17 246 3.2 3.2 0.00 0.00 0.36 59 941.5
20260905110201 17 228 0.0 1.6 0.00 0.00 0.36 60 941.3
20260905110100 17 297 1.6 1.6 0.00 0.00 0.36 59 941.5
20260905110000 17 339 1.6 1.6 0.00 0.00 0.36 58 941.5
20260905105900 17 322 1.6 1.6 0.00 0.00 0.36 60 941.5
20260905105800 17 229 1.6 3.2 0.00 0.00 0.36 59 941.2
20260905105700 17 235 1.6 3.2 0.00 0.00 0.36 59 941.4
20260905105601 18 283 1.6 3.2 0.00 0.00 0.36 58 941.5
20260905105500 18 278 1.6 3.2 0.00 0.00 0.36 59 941.5
20260905105400 18 244 1.6 3.2 0.00 0.00 0.36 57 941.5
20260905105301 18 258 1.6 1.6 0.00 0.00 0.36 58 941.4
20260905105200 17 60 1.6 1.6 0.00 0.00 0.36 59 941.4
20260905105101 17 255 0.0 1.6 0.00 0.00 0.36 61 941.6
20260905105001 17 262 1.6 1.6 0.00 0.00 0.36 59 941.6
20260905104900 17 286 1.6 1.6 0.00 0.00 0.36 60 941.5
20260905104800 17 266 1.6 1.6 0.00 0.00 0.36 60 941.3
20260905104701 17 231 0.0 1.6 0.00 0.00 0.36 60 941.2
20260905104601 17 245 0.0 3.2 0.00 0.00 0.36 60 941.3
20260905104501 17 271 1.6 3.2 0.00 0.00 0.36 61 941.4
20260905104400 16 239 1.6 3.2 0.00 0.00 0.36 61 941.4
20260905104300 16 317 1.6 3.2 0.00 0.00 0.36 62 941.2
20260905104200 16 232 1.6 3.2 0.00 0.00 0.36 62 941.4
20260905104100 16 314 1.6 3.2 0.00 0.00 0.36 63 941.7
20260905104001 16 292 1.6 3.2 0.00 0.00 0.36 63 941.5
20260905103900 16 308 1.6 3.2 0.00 0.00 0.36 61 941.4
20260905103801 17 302 1.6 3.2 0.00 0.00 0.36 61 941.2
20260905103701 17 300 3.2 3.2 0.00 0.00 0.36 61 941.4
20260905103600 17 309 1.6 4.8 0.00 0.00 0.36 61 941.6
20260905103500 17 291 3.2 3.2 0.00 0.00 0.36 59 941.5
20260905103400 18 294 1.6 3.2 0.00 0.00 0.36 59 941.4
20260905103301 18 278 1.6 3.2 0.00 0.00 0.36 58 941.2
20260905103200 17 68 1.6 1.6 0.00 0.00 0.36 61 941.6
20260905103101 17 248 1.6 1.6 0.00 0.00 0.36 63 941.3
20260905103000 17 296 0.0 1.6 0.00 0.00 0.36 61 941.3
20260905102901 17 255 1.6 1.6 0.00 0.00 0.36 61 941.4
20260905102800 17 359 0.0 1.6 0.00 0.00 0.36 62 941.5
20260905102700 17 231 1.6 1.6 0.00 0.00 0.36 64 941.6
20260905102600 17 303 1.6 1.6 0.00 0.00 0.36 65 941.4
20260905102500 17 294 0.0 1.6 0.00 0.00 0.36 65 941.6
20260905102400 16 309 1.6 1.6 0.00 0.00 0.36 65 941.4
20260905102301 16 289 0.0 1.6 0.00 0.00 0.36 67 941.5
20260905102200 16 282 0.0 1.6 0.00 0.00 0.36 69 941.4
20260905102100 16 293 1.6 4.8 0.00 0.00 0.36 68 941.5
20260905102000 16 310 1.6 4.8 0.00 0.00 0.36 67 941.5
20260905101901 16 304 1.6 4.8 0.00 0.00 0.36 69 941.2
20260905101800 16 279 1.6 3.2 0.00 0.00 0.36 69 941.5
20260905101700 16 220 1.6 1.6 0.00 0.00 0.36 71 941.3
20260905101601 16 300 0.0 3.2 0.00 0.00 0.36 71 941.3
20260905101500 16 294 1.6 4.8 0.00 0.00 0.36 70 941.4
20260905101400 16 273 3.2 4.8 0.00 0.00 0.36 69 941.5
20260905101300 16 318 0.0 1.6 0.00 0.00 0.36 71 941.4
20260905101201 16 292 1.6 1.6 0.00 0.00 0.36 72 941.3
20260905101101 16 271 1.6 1.6 0.00 0.00 0.36 71 941.3
20260905101000 16 303 1.6 1.6 0.00 0.00 0.36 71 941.4
20260905100901 16 239 0.0 1.6 0.00 0.00 0.36 71 941.5
20260905100801 16 290 1.6 1.6 0.00 0.00 0.36 70 941.4
20260905100701 16 290 1.6 1.6 0.00 0.00 0.36 70 941.4
20260905100600 16 328 1.6 1.6 0.00 0.00 0.36 71 941.4
20260905100500 16 296 1.6 1.6 0.00 0.00 0.36 71 941.4
20260905100401 16 235 1.6 3.2 0.00 0.00 0.36 70 941.2
20260905100301 16 294 1.6 3.2 0.00 0.00 0.36 70 941.4
20260905100200 17 234 1.6 3.2 0.00 0.00 0.36 68 941.3
20260905100101 17 270 1.6 3.2 0.00 0.00 0.36 68 941.4
20260905100000 17 307 1.6 1.6 0.00 0.00 0.36 69 941.1
20260905095900 17 296 1.6 1.6 0.00 0.00 0.36 68 941.3
20260905095800 17 296 1.6 1.6 0.00 0.00 0.36 67 941.3
20260905095700 17 272 1.6 1.6 0.00 0.00 0.36 69 941.3
20260905095601 17 232 1.6 1.6 0.00 0.00 0.36 70 941.5
20260905095500 17 206 0.0 1.6 0.00 0.00 0.36 68 941.5
20260905095400 17 1 0.0 1.6 0.00 0.00 0.36 70 941.3
20260905095300 17 262 1.6 1.6 0.00 0.00 0.36 69 941.3
20260905095201 16 307 1.6 1.6 0.00 0.00 0.36 72 941.3
20260905095100 16 178 1.6 1.6 0.00 0.00 0.36 73 941.4
20260905095000 16 318 1.6 3.2 0.00 0.00 0.36 75 941.0
20260905094900 16 286 1.6 3.2 0.00 0.00 0.36 72 941.3
20260905094800 16 260 1.6 3.2 0.00 0.00 0.36 73 941.3
20260905094700 16 244 1.6 3.2 0.00 0.00 0.36 73 941.3
20260905094600 16 273 1.6 1.6 0.00 0.00 0.36 74 941.2
20260905094500 16 288 1.6 1.6 0.00 0.00 0.36 73 941.4
20260905094400 16 228 1.6 1.6 0.00 0.00 0.36 75 941.4
20260905094305 16 311 1.6 1.6 0.00 0.00 0.36 73 941.3
20260905094200 15 301 1.6 1.6 0.00 0.00 0.36 74 941.2
20260905094100 15 318 1.6 1.6 0.00 0.00 0.36 76 941.4
20260905094000 15 224 0.0 1.6 0.00 0.00 0.36 76 941.5
20260905093901 15 311 0.0 1.6 0.00 0.00 0.36 75 941.3
20260905093800 15 279 1.6 1.6 0.00 0.00 0.36 76 941.4
20260905093700 15 283 1.6 1.6 0.00 0.00 0.36 75 941.2
20260905093601 15 270 1.6 3.2 0.00 0.00 0.36 75 941.4
20260905093500 15 286 1.6 1.6 0.00 0.00 0.36 75 941.5
20260905093400 15 312 1.6 1.6 0.00 0.00 0.36 78 941.4
20260905093300 15 302 0.0 1.6 0.00 0.00 0.36 79 941.4
20260905093201 15 231 0.0 1.6 0.00 0.00 0.36 78 941.4
20260905093100 15 314 0.0 1.6 0.00 0.00 0.36 78 941.5
20260905093001 15 233 1.6 1.6 0.00 0.00 0.36 78 941.5
20260905092901 15 283 0.0 1.6 0.00 0.00 0.36 78 941.4
20260905092801 15 263 0.0 1.6 0.00 0.00 0.36 78 941.5
20260905092700 15 270 1.6 1.6 0.00 0.00 0.36 77 941.4
20260905092600 15 254 1.6 1.6 0.00 0.00 0.36 78 941.4
20260905092500 15 304 0.0 1.6 0.00 0.00 0.36 78 941.6
20260905092400 15 312 0.0 1.6 0.00 0.00 0.36 79 941.3
20260905092300 15 330 0.0 1.6 0.00 0.00 0.36 79 941.6
20260905092200 15 218 1.6 1.6 0.00 0.00 0.36 81 941.5
20260905092101 14 316 0.0 1.6 0.00 0.00 0.36 81 941.3
20260905092000 14 228 1.6 1.6 0.00 0.00 0.36 81 941.4
20260905091900 15 322 1.6 1.6 0.00 0.00 0.36 80 941.4
20260905091800 15 322 1.6 1.6 0.00 0.00 0.36 80 941.4
20260905091700 15 227 1.6 1.6 0.00 0.00 0.36 80 941.5
20260905091600 15 287 0.0 1.6 0.00 0.00 0.36 81 941.3
20260905091501 15 330 0.0 1.6 0.00 0.00 0.36 81 941.5
20260905091401 15 302 0.0 1.6 0.00 0.00 0.36 81 941.3
20260905091300 14 309 1.6 1.6 0.00 0.00 0.36 82 941.5
20260905091200 14 283 0.0 0.0 0.00 0.00 0.36 82 941.5
20260905091101 14 296 0.0 1.6 0.00 0.00 0.36 82 941.4
20260905091000 14 308 0.0 1.6 0.00 0.00 0.36 82 941.6
20260905090900 14 289 0.0 1.6 0.00 0.00 0.36 82 941.4
20260905090801 14 311 0.0 1.6 0.00 0.00 0.36 81 941.4
20260905090700 14 304 0.0 1.6 0.00 0.00 0.36 81 941.3
20260905090600 14 304 0.0 1.6 0.00 0.00 0.36 81 941.3
20260905090502 14 312 1.6 1.6 0.00 0.00 0.36 81 941.3
20260905090400 15 319 0.0 1.6 0.00 0.00 0.36 82 941.4
20260905090300 15 325 0.0 1.6 0.00 0.00 0.36 81 941.5
20260905090201 15 256 1.6 1.6 0.00 0.00 0.36 81 941.2
20260905090100 15 308 1.6 1.6 0.00 0.00 0.36 81 941.4
20260905090000 15 242 0.0 1.6 0.00 0.00 0.36 82 941.4
20260905085901 15 273 1.6 1.6 0.00 0.00 0.36 82 941.4
20260905085800 15 302 0.0 1.6 0.00 0.00 0.36 81 941.2
20260905085700 15 278 0.0 1.6 0.00 0.00 0.36 81 941.0
20260905085600 15 347 0.0 1.6 0.00 0.00 0.36 81 941.3
20260905085501 15 309 1.6 1.6 0.00 0.00 0.36 80 941.4
20260905085401 15 304 0.0 3.2 0.00 0.00 0.36 79 941.2
20260905085300 15 271 1.6 3.2 0.00 0.00 0.36 79 941.4
20260905085200 15 317 1.6 3.2 0.00 0.00 0.36 79 941.1
20260905085101 15 250 1.6 3.2 0.00 0.00 0.36 81 941.1
20260905085001 15 260 0.0 1.6 0.00 0.00 0.36 83 941.2
20260905084901 14 320 0.0 1.6 0.00 0.00 0.36 84 941.3
20260905084803 14 225 0.0 1.6 0.00 0.00 0.36 84 941.1
20260905084700 14 314 0.0 1.6 0.00 0.00 0.36 83 941.2
20260905084600 14 277 0.0 1.6 0.00 0.00 0.36 84 941.1
20260905084501 14 232 1.6 1.6 0.00 0.00 0.36 84 941.1
20260905084400 14 323 0.0 1.6 0.00 0.00 0.36 85 941.3
20260905084301 14 310 0.0 1.6 0.00 0.00 0.36 85 941.1
20260905084200 14 316 0.0 1.6 0.00 0.00 0.36 84 941.1
20260905084100 14 262 1.6 1.6 0.00 0.00 0.36 84 941.1
20260905084000 14 318 0.0 1.6 0.00 0.00 0.36 84 941.1
20260905083900 14 293 0.0 1.6 0.00 0.00 0.36 84 941.1
20260905083800 14 29 0.0 1.6 0.00 0.00 0.36 85 940.8
20260905083700 14 293 0.0 1.6 0.00 0.00 0.36 84 940.9
20260905083600 14 282 0.0 1.6 0.00 0.00 0.36 85 941.0
20260905083501 14 297 0.0 1.6 0.00 0.00 0.36 85 941.0
20260905083400 14 297 0.0 1.6 0.00 0.00 0.36 85 940.9
20260905083300 14 265 0.0 1.6 0.00 0.00 0.36 85 940.9
20260905083201 14 319 0.0 1.6 0.00 0.00 0.36 84 941.0
20260905083100 14 313 1.6 1.6 0.00 0.00 0.36 84 941.1
20260905083000 14 284 1.6 1.6 0.00 0.00 0.36 84 941.0
20260905082900 14 286 0.0 1.6 0.00 0.00 0.36 85 940.8
20260905082801 14 251 0.0 1.6 0.00 0.00 0.36 85 940.9
20260905082701 14 259 1.6 1.6 0.00 0.00 0.36 85 941.0
20260905082601 14 304 1.6 1.6 0.00 0.00 0.36 85 940.8
20260905082501 14 275 0.0 1.6 0.00 0.00 0.36 84 940.8
20260905082400 14 311 1.6 1.6 0.00 0.00 0.36 84 941.0
20260905082300 14 289 0.0 1.6 0.00 0.00 0.36 84 940.9
20260905082200 14 268 1.6 1.6 0.00 0.00 0.36 83 940.8
20260905082100 14 254 1.6 1.6 0.00 0.00 0.36 84 940.9
20260905082000 14 233 0.0 1.6 0.00 0.00 0.36 84 940.8
20260905081901 14 257 0.0 1.6 0.00 0.00 0.36 85 940.9
20260905081800 14 300 0.0 1.6 0.00 0.00 0.36 85 940.7
20260905081700 13 284 0.0 0.0 0.00 0.00 0.36 86 940.8
20260905081600 13 297 0.0 1.6 0.00 0.00 0.36 86 940.9
20260905081501 13 302 0.0 1.6 0.00 0.00 0.36 87 941.0
20260905081400 13 302 0.0 1.6 0.00 0.00 0.36 86 940.7
20260905081301 13 327 0.0 1.6 0.00 0.00 0.36 86 940.7
20260905081200 13 305 1.6 1.6 0.00 0.00 0.36 86 940.7
20260905081100 13 244 1.6 1.6 0.00 0.00 0.36 87 940.9
20260905081000 13 312 0.0 1.6 0.00 0.00 0.36 87 940.7
20260905080900 13 316 0.0 1.6 0.00 0.00 0.36 87 940.8
20260905080801 13 312 0.0 1.6 0.00 0.00 0.36 86 940.9
20260905080701 13 312 0.0 3.2 0.00 0.00 0.36 86 940.9
20260905080601 13 277 3.2 3.2 0.00 0.00 0.36 86 941.0
20260905080500 13 277 3.2 3.2 0.00 0.00 0.36 86 941.0
20260905080400 13 272 0.0 1.6 0.00 0.00 0.36 85 940.7
20260905080300 13 316 0.0 3.2 0.00 0.00 0.36 85 940.9
20260905080200 13 308 1.6 3.2 0.00 0.00 0.36 87 940.9
20260905080100 13 319 0.0 1.6 0.00 0.00 0.36 88 940.7
20260905080000 13 282 0.0 1.6 0.00 0.00 0.36 89 940.9
20260905075900 13 236 0.0 1.6 0.00 0.00 0.36 89 940.6
20260905075801 13 290 0.0 1.6 0.00 0.00 0.36 89 940.7
20260905075700 13 203 1.6 1.6 0.00 0.00 0.36 90 940.9
20260905075600 13 296 0.0 1.6 0.00 0.00 0.36 90 940.7
20260905075500 13 260 0.0 1.6 0.00 0.00 0.36 90 940.7
20260905075400 13 60 0.0 0.0 0.00 0.00 0.36 91 940.8
20260905075300 13 286 0.0 1.6 0.00 0.00 0.36 91 940.5
20260905075201 13 295 0.0 1.6 0.00 0.00 0.36 91 940.8
20260905075101 13 290 0.0 1.6 0.00 0.00 0.36 92 940.8
20260905075000 13 305 0.0 1.6 0.00 0.00 0.36 92 940.7
20260905074900 12 310 0.0 1.6 0.00 0.00 0.36 92 940.5
20260905074801 12 311 0.0 3.2 0.00 0.00 0.36 92 940.8
20260905074701 12 274 0.0 3.2 0.00 0.00 0.36 92 940.9
20260905074606 12 213 1.6 1.6 0.00 0.00 0.36 92 940.8
20260905074500 12 306 0.0 1.6 0.00 0.00 0.36 92 940.8
20260905074400 12 308 0.0 1.6 0.00 0.00 0.36 92 940.8
20260905074301 12 308 0.0 1.6 0.00 0.00 0.36 92 940.7
20260905074201 12 296 1.6 1.6 0.00 0.00 0.36 92 940.8
20260905074100 12 294 0.0 1.6 0.00 0.00 0.36 92 940.6
20260905074001 12 317 0.0 1.6 0.00 0.00 0.36 92 940.6
20260905073900 12 316 0.0 1.6 0.00 0.00 0.36 92 940.8
20260905073801 12 316 0.0 1.6 0.00 0.00 0.36 92 940.8
20260905073700 12 314 0.0 1.6 0.00 0.00 0.36 92 940.5
20260905073600 12 319 0.0 1.6 0.00 0.00 0.36 92 940.6
20260905073501 12 282 0.0 1.6 0.00 0.00 0.36 92 940.6
20260905073400 12 310 0.0 1.6 0.00 0.00 0.36 92 940.7
20260905073300 12 298 0.0 1.6 0.00 0.00 0.36 92 940.5
20260905073200 12 230 0.0 1.6 0.00 0.00 0.36 92 940.6
20260905073100 12 252 0.0 1.6 0.00 0.00 0.36 91 940.4
20260905073000 12 286 0.0 1.6 0.00 0.00 0.36 92 940.4
20260905072900 12 308 0.0 1.6 0.00 0.00 0.36 91 940.4
20260905072800 12 301 1.6 1.6 0.00 0.00 0.36 91 940.3
20260905072701 12 258 1.6 1.6 0.00 0.00 0.36 91 940.6
20260905072600 12 295 0.0 1.6 0.00 0.00 0.36 91 940.5
20260905072500 12 268 0.0 1.6 0.00 0.00 0.36 92 940.5
20260905072401 12 282 0.0 1.6 0.00 0.00 0.36 91 940.4
20260905072300 12 233 0.0 1.6 0.00 0.00 0.36 91 940.5
20260905072201 12 238 1.6 1.6 0.00 0.00 0.36 91 940.6
20260905072100 12 303 1.6 1.6 0.00 0.00 0.36 91 940.5
20260905072000 12 307 0.0 1.6 0.00 0.00 0.36 91 940.4
20260905071900 12 253 0.0 1.6 0.00 0.00 0.36 91 940.5
20260905071800 12 245 0.0 1.6 0.00 0.00 0.36 91 940.5
20260905071701 12 314 0.0 0.0 0.00 0.00 0.36 91 940.5
20260905071600 12 309 0.0 1.6 0.00 0.00 0.36 91 940.5
20260905071500 12 309 0.0 1.6 0.00 0.00 0.36 91 940.3
20260905071401 12 301 0.0 1.6 0.00 0.00 0.36 91 940.5
20260905071302 12 305 0.0 1.6 0.00 0.00 0.36 91 940.5
20260905071200 12 266 1.6 1.6 0.00 0.00 0.36 91 940.6
20260905071100 12 307 0.0 1.6 0.00 0.00 0.36 91 940.3
20260905071001 12 258 0.0 0.0 0.00 0.00 0.36 91 940.4
20260905070901 12 264 0.0 1.6 0.00 0.00 0.36 91 940.4
20260905070800 12 262 0.0 1.6 0.00 0.00 0.36 91 940.3
20260905070701 12 240 0.0 1.6 0.00 0.00 0.36 91 940.5
20260905070601 12 290 0.0 1.6 0.00 0.00 0.36 91 940.5
20260905070501 12 246 0.0 1.6 0.00 0.00 0.36 90 940.3
20260905070401 12 246 0.0 1.6 0.00 0.00 0.36 90 940.3
20260905070300 12 248 0.0 1.6 0.00 0.00 0.36 90 940.3
20260905070200 12 225 1.6 1.6 0.00 0.00 0.36 90 940.3
20260905070100 12 302 0.0 1.6 0.00 0.00 0.36 90 940.1
20260905070000 12 252 0.0 1.6 0.00 0.00 0.36 90 940.4
20260905065901 12 253 1.6 1.6 0.00 0.00 0.36 90 940.4
20260905065800 12 263 0.0 1.6 0.00 0.00 0.36 90 940.5
20260905065701 12 250 0.0 1.6 0.00 0.00 0.36 90 940.3
20260905065602 12 293 1.6 1.6 0.00 0.00 0.36 90 940.4
20260905065500 12 225 0.0 4.8 0.00 0.00 0.36 90 940.3
20260905065401 12 222 1.6 4.8 0.00 0.00 0.36 91 940.4
20260905065301 12 237 1.6 3.2 0.00 0.00 0.36 91 940.5
20260905065201 12 224 1.6 1.6 0.00 0.00 0.36 91 940.5
20260905065101 12 264 0.0 1.6 0.00 0.00 0.36 91 940.3
20260905065000 12 264 1.6 3.2 0.00 0.00 0.36 91 940.5
20260905064901 11 233 0.0 3.2 0.00 0.00 0.36 91 940.2
20260905064800 11 230 0.0 1.6 0.00 0.00 0.36 92 940.4
20260905064701 11 233 0.0 1.6 0.00 0.00 0.36 92 940.2
20260905064600 11 302 0.0 1.6 0.00 0.00 0.36 92 940.4
20260905064500 11 231 0.0 1.6 0.00 0.00 0.36 92 940.3
20260905064401 11 299 0.0 1.6 0.00 0.00 0.36 92 940.3
20260905064301 11 238 0.0 1.6 0.00 0.00 0.36 92 940.2
20260905064200 11 307 0.0 0.0 0.00 0.00 0.36 92 940.4
20260905064100 11 295 0.0 1.6 0.00 0.00 0.36 92 940.5
20260905064001 11 226 0.0 1.6 0.00 0.00 0.36 93 940.4
20260905063900 11 268 0.0 1.6 0.00 0.00 0.36 93 940.2
20260905063800 11 274 0.0 1.6 0.00 0.00 0.36 93 940.3
20260905063700 11 316 0.0 1.6 0.00 0.00 0.36 93 940.2
20260905063601 11 248 0.0 1.6 0.00 0.00 0.36 94 940.3
20260905063500 11 312 1.6 1.6 0.00 0.00 0.36 94 940.2
20260905063400 11 266 0.0 1.6 0.00 0.00 0.36 94 940.2
20260905063300 11 268 1.6 1.6 0.00 0.00 0.36 94 940.3
20260905063200 11 266 0.0 1.6 0.00 0.00 0.36 95 940.3
20260905063100 11 261 0.0 1.6 0.00 0.00 0.36 95 940.4
20260905063000 11 221 0.0 1.6 0.00 0.00 0.36 95 940.6
20260905062901 11 325 0.0 1.6 0.00 0.00 0.36 95 940.4
20260905062801 11 240 0.0 3.2 0.00 0.00 0.36 95 940.4
20260905062701 11 331 1.6 1.6 0.00 0.00 0.36 95 940.4
20260905062601 11 276 0.0 1.6 0.00 0.00 0.36 95 940.5
20260905062500 11 282 0.0 3.2 0.00 0.00 0.36 95 940.6
20260905062400 11 251 0.0 4.8 0.00 0.00 0.36 95 940.5
20260905062300 11 226 0.0 4.8 0.00 0.00 0.36 95 940.6
20260905062201 11 205 1.6 3.2 0.00 0.00 0.36 95 940.7
20260905062101 11 311 0.0 1.6 0.00 0.00 0.36 95 940.5
20260905062001 11 221 1.6 3.2 0.00 0.00 0.36 95 940.6
20260905061901 11 219 1.6 3.2 0.00 0.00 0.36 95 940.6
20260905061800 11 254 0.0 1.6 0.00 0.00 0.36 95 940.6
20260905061700 11 224 1.6 3.2 0.00 0.00 0.36 95 940.5
20260905061601 11 220 1.6 3.2 0.00 0.00 0.36 95 940.5
20260905061501 11 231 1.6 1.6 0.00 0.00 0.36 96 940.5
20260905061400 11 248 0.0 3.2 0.00 0.00 0.36 95 940.5
20260905061300 11 229 1.6 4.8 0.00 0.00 0.36 95 940.4
20260905061201 11 214 3.2 4.8 0.00 0.00 0.36 95 940.5
20260905061100 11 204 3.2 4.8 0.00 0.00 0.36 95 940.4
20260905061001 11 226 0.0 1.6 0.00 0.00 0.36 95 940.5
20260905060902 11 223 0.0 3.2 0.00 0.00 0.36 96 940.4
20260905060801 11 229 1.6 3.2 0.00 0.00 0.36 95 940.5
20260905060701 11 224 0.0 1.6 0.00 0.00 0.36 95 940.3
20260905060600 11 223 1.6 1.6 0.00 0.00 0.36 95 940.2
20260905060500 11 225 1.6 1.6 0.00 0.00 0.36 95 940.4
20260905060400 11 224 0.0 1.6 0.00 0.00 0.36 95 940.5
20260905060300 11 224 0.0 1.6 0.00 0.00 0.36 95 940.5
20260905060200 11 225 1.6 3.2 0.00 0.00 0.36 95 940.1
20260905060100 11 210 1.6 3.2 0.00 0.00 0.36 95 940.2
20260905060001 11 228 1.6 3.2 0.00 0.00 0.36 95 940.3
20260905055905 11 232 0.0 3.2 0.00 0.00 0.36 95 940.1
20260905055800 11 230 0.0 1.6 0.00 0.00 0.36 95 940.2
20260905055700 11 219 0.0 3.2 0.00 0.00 0.36 95 940.4
20260905055600 11 228 0.0 4.8 0.00 0.00 0.36 95 940.3
20260905055501 11 210 3.2 4.8 0.00 0.00 0.36 95 940.2
20260905055400 11 200 1.6 3.2 0.00 0.00 0.36 95 939.9
20260905055300 11 238 0.0 3.2 0.00 0.00 0.36 95 940.2
20260905055200 11 223 1.6 3.2 0.00 0.00 0.36 95 940.2
20260905055100 11 212 0.0 3.2 0.00 0.00 0.36 95 940.0
20260905055000 11 234 0.0 3.2 0.00 0.00 0.36 95 940.1
20260905054901 11 230 0.0 3.2 0.00 0.00 0.36 95 940.2
20260905054800 11 227 1.6 3.2 0.00 0.00 0.36 95 940.3
20260905054700 11 211 1.6 3.2 0.00 0.00 0.36 95 940.1
20260905054601 11 227 0.0 3.2 0.00 0.00 0.36 95 939.9
20260905054500 11 227 0.0 3.2 0.00 0.00 0.36 95 940.0
20260905054400 11 195 1.6 1.6 0.00 0.00 0.36 95 940.2
20260905054300 11 213 1.6 3.2 0.00 0.00 0.36 95 940.1
20260905054201 11 232 0.0 3.2 0.00 0.00 0.36 95 940.1
20260905054100 11 210 1.6 1.6 0.00 0.00 0.36 95 939.9
20260905054001 11 212 1.6 1.6 0.00 0.00 0.36 95 940.1
20260905053901 11 217 1.6 1.6 0.00 0.00 0.36 95 939.9
20260905053801 11 239 0.0 0.0 0.00 0.00 0.36 95 939.8
20260905053702 11 266 0.0 0.0 0.00 0.00 0.36 95 940.1
20260905053601 11 294 0.0 0.0 0.00 0.00 0.36 95 939.8
20260905053500 11 295 0.0 0.0 0.00 0.00 0.36 95 940.0
20260905053400 11 219 0.0 3.2 0.00 0.00 0.36 95 939.5
20260905053301 11 223 1.6 3.2 0.00 0.00 0.36 95 939.6
20260905053201 11 175 1.6 3.2 0.00 0.00 0.36 95 939.6
20260905053100 11 223 0.0 1.6 0.00 0.00 0.36 95 939.6
20260905053000 11 269 0.0 0.0 0.00 0.00 0.36 95 939.8
20260905052900 11 270 0.0 0.0 0.00 0.00 0.36 95 939.8
20260905052800 11 269 0.0 0.0 0.00 0.00 0.36 95 939.7
20260905052700 11 246 0.0 1.6 0.00 0.00 0.36 95 939.9
20260905052600 11 243 0.0 1.6 0.00 0.00 0.36 95 939.5
20260905052500 11 222 1.6 3.2 0.00 0.00 0.36 95 939.6
20260905052400 11 225 1.6 3.2 0.00 0.00 0.36 95 939.4
20260905052300 11 222 1.6 4.8 0.00 0.00 0.36 95 939.2
20260905052200 11 213 1.6 4.8 0.00 0.00 0.36 95 939.2
20260905052101 11 221 3.2 4.8 0.00 0.00 0.36 95 939.3
20260905052000 11 212 3.2 4.8 0.00 0.00 0.36 95 939.2
20260905051900 11 213 3.2 4.8 0.00 0.00 0.36 95 939.2
20260905051801 11 204 4.8 4.8 0.00 0.00 0.36 94 939.0
20260905051700 11 219 4.8 4.8 0.00 0.00 0.36 94 939.0
20260905051600 11 199 4.8 4.8 0.00 0.00 0.36 94 938.9
20260905051500 11 208 4.8 4.8 0.00 0.00 0.36 94 938.9
20260905051400 11 210 4.8 4.8 0.00 0.00 0.36 94 939.1
20260905051300 11 206 4.8 4.8 0.00 0.00 0.36 94 938.9
20260905051200 11 190 4.8 4.8 0.00 0.00 0.36 94 938.7
20260905051100 11 203 4.8 4.8 0.00 0.00 0.36 93 938.9
20260905051000 11 181 4.8 6.4 0.00 0.00 0.36 93 938.8
20260905050900 11 188 3.2 6.4 0.00 0.00 0.36 93 938.9
20260905050800 11 174 3.2 4.8 0.00 0.00 0.36 93 939.1
20260905050700 11 205 3.2 4.8 0.00 0.00 0.36 93 939.3
20260905050601 11 199 3.2 4.8 0.00 0.00 0.36 93 939.4
20260905050500 11 190 3.2 4.8 0.00 0.00 0.33 93 939.5
20260905050400 11 212 3.2 4.8 0.00 0.00 0.33 93 939.5
20260905050301 11 212 3.2 4.8 0.00 0.00 0.33 93 939.5
20260905050200 11 219 3.2 4.8 0.00 0.00 0.33 93 939.6
20260905050101 11 211 3.2 4.8 0.00 0.00 0.33 93 939.4
20260905050000 11 218 1.6 3.2 0.00 0.00 0.30 93 939.7
20260905045900 11 214 3.2 3.2 0.00 0.00 0.30 93 939.5
20260905045801 11 232 3.2 3.2 0.00 0.00 0.30 93 939.8
20260905045701 11 228 1.6 3.2 0.00 0.00 0.30 93 939.8
20260905045600 11 225 1.6 3.2 0.00 0.00 0.30 93 939.8
20260905045501 11 240 1.6 3.2 0.00 0.00 0.30 93 939.8
20260905045400 11 218 1.6 3.2 0.00 0.00 0.30 93 939.7
20260905045305 11 219 1.6 1.6 0.00 0.00 0.30 92 939.7
20260905045200 11 222 1.6 1.6 0.00 0.00 0.30 92 939.8
20260905045100 11 240 1.6 1.6 0.00 0.00 0.30 92 939.6
20260905045001 11 240 0.0 1.6 0.00 0.00 0.28 92 939.9
20260905044900 11 240 0.0 1.6 0.00 0.00 0.28 92 939.8
20260905044800 11 223 0.0 1.6 0.00 0.00 0.28 92 939.4
20260905044701 11 239 0.0 1.6 0.00 0.00 0.25 92 939.7
20260905044600 11 237 0.0 1.6 0.00 0.00 0.25 92 939.7
20260905044502 11 277 0.0 0.0 0.00 0.00 0.25 92 939.8
20260905044401 11 263 0.0 1.6 0.00 0.00 0.25 91 939.8
20260905044300 11 269 0.0 1.6 0.00 0.00 0.25 91 939.7
20260905044200 11 306 0.0 1.6 0.00 0.00 0.25 91 939.7
20260905044100 11 265 0.0 1.6 0.00 0.00 0.25 91 939.7
20260905044000 11 317 0.0 1.6 0.00 0.00 0.23 91 939.6
20260905043901 11 279 0.0 1.6 0.00 0.00 0.23 91 939.6
20260905043800 11 278 0.0 1.6 0.00 0.00 0.23 90 939.5
20260905043700 11 308 0.0 1.6 0.00 0.00 0.23 90 939.4
20260905043600 11 302 0.0 1.6 0.00 0.00 0.23 90 939.7
20260905043501 11 282 0.0 1.6 0.00 0.00 0.20 90 939.5
20260905043400 11 254 0.0 1.6 0.00 0.00 0.20 90 939.6
20260905043300 11 277 0.0 1.6 0.00 0.00 0.20 89 939.7
20260905043200 11 313 1.6 1.6 0.00 0.00 0.18 89 939.6
20260905043101 11 286 0.0 1.6 0.00 0.00 0.18 89 939.5
20260905043000 11 314 0.0 1.6 0.00 0.00 0.18 89 939.5
20260905042900 11 311 1.6 1.6 0.00 0.00 0.15 88 939.7
20260905042800 11 305 1.6 3.2 0.00 0.00 0.15 88 939.7
20260905042700 11 309 1.6 3.2 0.00 0.00 0.13 88 939.7
20260905042600 12 299 1.6 1.6 0.00 0.00 0.13 88 939.9
20260905042500 12 305 1.6 3.2 0.00 0.00 0.10 87 939.9
20260905042400 12 298 1.6 1.6 0.00 0.00 0.10 87 940.0
20260905042300 12 277 1.6 1.6 0.00 0.00 0.10 86 940.0
20260905042201 12 325 1.6 1.6 0.00 0.00 0.08 86 940.0
20260905042100 12 304 0.0 1.6 0.00 0.00 0.08 86 939.8
20260905042000 12 294 0.0 1.6 0.00 0.00 0.08 86 939.9
20260905041900 12 303 0.0 1.6 0.00 0.00 0.08 85 939.7
20260905041800 12 328 0.0 1.6 0.00 0.00 0.08 85 939.8
20260905041700 12 318 0.0 1.6 0.00 0.00 0.05 85 939.7
20260905041600 12 283 0.0 1.6 0.00 0.00 0.05 84 939.9
20260905041501 12 238 1.6 1.6 0.00 0.00 0.05 84 939.9
20260905041400 12 294 1.6 1.6 0.00 0.00 0.05 84 939.8
20260905041300 12 245 0.0 1.6 0.00 0.00 0.05 84 939.7
20260905041200 12 244 0.0 1.6 0.00 0.00 0.05 84 939.6
20260905041101 12 261 0.0 0.0 0.00 0.00 0.05 84 939.6
20260905041000 12 316 0.0 1.6 0.00 0.00 0.05 84 939.6
20260905040900 12 316 0.0 1.6 0.00 0.00 0.05 84 939.7
20260905040800 12 284 0.0 1.6 0.00 0.00 0.05 84 939.6
20260905040700 12 286 0.0 1.6 0.00 0.00 0.05 83 939.6
20260905040601 12 264 0.0 1.6 0.00 0.00 0.05 83 939.8
20260905040500 12 290 0.0 1.6 0.00 0.00 0.05 83 939.4
20260905040400 12 318 0.0 1.6 0.00 0.00 0.05 84 939.6
20260905040301 12 253 0.0 1.6 0.00 0.00 0.05 83 939.4
20260905040200 12 251 1.6 1.6 0.00 0.00 0.05 84 939.4
20260905040101 12 251 1.6 1.6 0.00 0.00 0.05 84 939.4
20260905040000 12 304 0.0 1.6 0.00 0.00 0.05 83 939.4
20260905035900 12 251 0.0 1.6 0.00 0.00 0.05 83 939.6
20260905035800 12 316 0.0 1.6 0.00 0.00 0.05 83 939.4
20260905035700 12 297 0.0 1.6 0.00 0.00 0.05 83 939.1
20260905035600 12 309 0.0 1.6 0.00 0.00 0.05 83 939.1
20260905035500 12 305 1.6 1.6 0.00 0.00 0.05 83 939.3
20260905035400 12 323 0.0 1.6 0.00 0.00 0.05 83 939.1
20260905035300 12 321 0.0 1.6 0.00 0.00 0.05 83 939.2
20260905035200 12 313 0.0 1.6 0.00 0.00 0.05 83 939.1
20260905035100 12 298 0.0 1.6 0.00 0.00 0.05 83 939.1
20260905035000 12 300 0.0 1.6 0.00 0.00 0.05 83 939.1
20260905034900 12 307 0.0 1.6 0.00 0.00 0.05 83 939.1
20260905034800 12 310 0.0 1.6 0.00 0.00 0.03 83 938.8
20260905034702 12 280 1.6 1.6 0.00 0.00 0.03 83 938.8
20260905034601 12 309 1.6 1.6 0.00 0.00 0.03 84 938.7
20260905034501 12 308 1.6 1.6 0.00 0.00 0.03 84 938.7
20260905034400 12 323 1.6 1.6 0.00 0.00 0.03 84 938.5
20260905034301 12 294 1.6 1.6 0.00 0.00 0.03 85 938.9
20260905034201 12 318 0.0 1.6 0.00 0.00 0.03 86 939.1
20260905034101 12 306 0.0 1.6 0.00 0.00 0.03 86 939.1
20260905034001 12 303 0.0 1.6 0.00 0.00 0.03 86 939.2
20260905033900 12 313 1.6 1.6 0.00 0.00 0.03 86 939.0
20260905033800 12 264 0.0 1.6 0.00 0.00 0.03 86 939.0
20260905033701 12 304 0.0 1.6 0.00 0.00 0.03 86 939.1
20260905033600 12 283 0.0 1.6 0.00 0.00 0.03 86 938.9
20260905033500 12 309 1.6 1.6 0.00 0.00 0.03 86 938.8
20260905033401 12 307 1.6 1.6 0.00 0.00 0.03 85 938.7
20260905033301 12 295 1.6 1.6 0.00 0.00 0.03 85 938.9
20260905033200 12 304 1.6 1.6 0.00 0.00 0.03 85 938.9
20260905033101 13 303 0.0 1.6 0.00 0.00 0.03 86 938.9
20260905033000 13 311 0.0 1.6 0.00 0.00 0.03 86 939.0
20260905032900 13 239 0.0 1.6 0.00 0.00 0.00 86 939.1
20260905032800 13 256 0.0 1.6 0.00 0.00 0.00 87 939.2
20260905032700 13 225 0.0 1.6 0.00 0.00 0.00 87 939.3
20260905032600 13 238 0.0 1.6 0.00 0.00 0.00 87 939.2
20260905032500 13 296 0.0 1.6 0.00 0.00 0.00 87 939.3
20260905032401 13 244 1.6 1.6 0.00 0.00 0.00 87 939.2
20260905032301 13 234 0.0 1.6 0.00 0.00 0.00 87 939.0
20260905032200 13 247 0.0 0.0 0.00 0.00 0.00 87 938.8
20260905032100 13 268 0.0 0.0 0.00 0.00 0.00 87 938.9
20260905032000 13 268 0.0 0.0 0.00 0.00 0.00 87 938.7
20260905031900 13 268 0.0 0.0 0.00 0.00 0.00 87 938.7
20260905031800 13 266 0.0 0.0 0.00 0.00 0.00 87 938.8
20260905031701 13 266 0.0 0.0 0.00 0.00 0.00 87 938.5
20260905031601 13 266 0.0 0.0 0.00 0.00 0.00 87 938.4
20260905031501 13 266 0.0 0.0 0.00 0.00 0.00 88 938.6
20260905031400 13 266 0.0 0.0 0.00 0.00 0.00 88 938.6
20260905031301 13 261 0.0 0.0 0.00 0.00 0.00 88 938.5
20260905031201 13 256 0.0 0.0 0.00 0.00 0.00 88 938.3
20260905031101 13 256 0.0 0.0 0.00 0.00 0.00 88 938.3
20260905031000 13 256 0.0 0.0 0.00 0.00 0.00 88 938.2
20260905030901 13 222 0.0 0.0 0.00 0.00 0.00 88 938.2
20260905030800 13 222 0.0 1.6 0.00 0.00 0.00 88 938.2
20260905030700 13 218 1.6 1.6 0.00 0.00 0.00 88 938.2
20260905030601 13 215 1.6 1.6 0.00 0.00 0.00 88 938.3
20260905030500 13 206 1.6 3.2 0.00 0.00 0.00 88 938.4
20260905030400 13 210 1.6 3.2 0.00 0.00 0.00 88 938.4
20260905030300 13 210 1.6 3.2 0.00 0.00 0.00 88 938.4
20260905030201 13 203 3.2 3.2 0.00 0.00 0.00 88 938.9
20260905030100 13 203 3.2 3.2 0.00 0.00 0.00 88 938.9
20260905030001 13 208 3.2 3.2 0.00 0.00 0.00 88 938.6
20260905025900 13 209 1.6 1.6 0.00 0.00 0.00 87 938.8
20260905025800 13 208 0.0 1.6 0.00 0.00 0.00 87 938.6
20260905025700 13 287 0.0 0.0 0.00 0.00 0.00 87 938.6
20260905025600 13 315 0.0 0.0 0.00 0.00 0.00 87 938.8
20260905025500 13 315 0.0 1.6 0.00 0.00 0.00 87 938.8
20260905025400 13 298 0.0 0.0 0.00 0.00 0.00 87 938.9
20260905025301 13 308 0.0 1.6 0.00 0.00 0.00 87 938.6
20260905025201 13 301 0.0 1.6 0.00 0.00 0.00 86 938.5
20260905025100 13 295 0.0 0.0 0.00 0.00 0.00 86 938.6
20260905025000 13 287 0.0 1.6 0.00 0.00 0.00 86 938.5
20260905024900 13 305 0.0 1.6 0.00 0.00 0.00 86 938.3
20260905024801 13 322 1.6 1.6 0.00 0.00 0.00 86 938.7
20260905024700 13 300 1.6 1.6 0.00 0.00 0.00 86 938.2
20260905024600 13 343 1.6 3.2 0.00 0.00 0.00 86 938.4
20260905024500 13 302 1.6 3.2 0.00 0.00 0.00 86 938.3
20260905024400 13 298 1.6 3.2 0.00 0.00 0.00 86 938.4
20260905024300 13 324 3.2 3.2 0.00 0.00 0.00 86 938.4
20260905024201 13 308 1.6 1.6 0.00 0.00 0.00 87 938.4
20260905024103 13 307 0.0 3.2 0.00 0.00 0.00 86 938.1
20260905024000 13 310 0.0 3.2 0.00 0.00 0.00 86 938.5
20260905023900 13 311 0.0 1.6 0.00 0.00 0.00 86 938.3
20260905023800 13 295 1.6 1.6 0.00 0.00 0.00 86 938.5
20260905023700 13 311 0.0 1.6 0.00 0.00 0.00 86 938.5
20260905023600 13 303 0.0 3.2 0.00 0.00 0.00 86 938.3
20260905023501 13 318 1.6 4.8 0.00 0.00 0.00 86 938.3
20260905023400 13 316 3.2 4.8 0.00 0.00 0.00 86 938.4
20260905023301 13 310 3.2 4.8 0.00 0.00 0.00 86 938.5
20260905023200 13 356 3.2 3.2 0.00 0.00 0.00 87 938.4
20260905023100 13 307 3.2 3.2 0.00 0.00 0.00 86 938.5
20260905023001 13 310 3.2 4.8 0.00 0.00 0.00 86 938.3
20260905022900 13 344 3.2 3.2 0.00 0.00 0.00 86 938.3
20260905022800 13 314 3.2 3.2 0.00 0.00 0.00 87 938.4
20260905022701 13 332 1.6 3.2 0.00 0.00 0.00 87 938.6
20260905022600 13 316 1.6 3.2 0.00 0.00 0.00 87 938.6
20260905022500 13 326 1.6 3.2 0.00 0.00 0.00 87 938.5
20260905022400 13 317 1.6 3.2 0.00 0.00 0.00 87 938.6
20260905022301 13 320 1.6 1.6 0.00 0.00 0.00 87 938.6
20260905022202 13 295 0.0 1.6 0.00 0.00 0.00 87 938.5
20260905022101 13 306 1.6 1.6 0.00 0.00 0.00 87 938.6
20260905022000 13 304 1.6 1.6 0.00 0.00 0.00 86 938.8
20260905021902 13 302 1.6 3.2 0.00 0.00 0.00 86 938.4
20260905021801 13 314 1.6 3.2 0.00 0.00 0.00 86 938.6
20260905021700 13 335 3.2 3.2 0.00 0.00 0.00 86 938.3
20260905021600 14 318 1.6 3.2 0.00 0.00 0.00 86 938.4
20260905021500 13 335 1.6 3.2 0.00 0.00 0.00 86 938.2
20260905021400 13 340 1.6 3.2 0.00 0.00 0.00 86 938.6
20260905021300 13 306 1.6 3.2 0.00 0.00 0.00 86 938.3
20260905021200 14 290 1.6 3.2 0.00 0.00 0.00 86 938.6
20260905021100 14 316 1.6 3.2 0.00 0.00 0.00 86 938.4
20260905021000 14 303 1.6 3.2 0.00 0.00 0.00 86 938.5
20260905020900 14 291 1.6 1.6 0.00 0.00 0.00 86 938.4
20260905020800 14 316 1.6 3.2 0.00 0.00 0.00 86 938.3
20260905020701 14 316 1.6 3.2 0.00 0.00 0.00 86 938.3
20260905020600 14 308 1.6 4.8 0.00 0.00 0.00 86 938.3
20260905020500 14 304 1.6 6.4 0.00 0.00 0.00 86 938.1
20260905020400 14 340 1.6 3.2 0.00 0.00 0.00 87 938.2
20260905020300 14 305 1.6 3.2 0.00 0.00 0.00 87 938.3
20260905020200 14 312 1.6 3.2 0.00 0.00 0.00 87 938.0
20260905020100 14 314 1.6 1.6 0.00 0.00 0.00 87 938.2
20260905020000 14 311 1.6 1.6 0.00 0.00 0.00 87 938.2
20260905015900 14 311 1.6 1.6 0.00 0.00 0.00 87 938.2
20260905015801 14 305 0.0 1.6 0.00 0.00 0.00 87 938.2
20260905015701 14 221 0.0 1.6 0.00 0.00 0.00 87 938.2
20260905015601 14 296 0.0 1.6 0.00 0.00 0.00 87 938.2
20260905015501 14 310 0.0 1.6 0.00 0.00 0.00 87 938.1
20260905015401 14 307 0.0 1.6 0.00 0.00 0.00 86 938.0
20260905015300 14 306 0.0 1.6 0.00 0.00 0.00 86 937.9
20260905015200 14 314 0.0 1.6 0.00 0.00 0.00 86 938.0
20260905015100 14 302 0.0 1.6 0.00 0.00 0.00 86 938.0
20260905015000 14 332 0.0 0.0 0.00 0.00 0.00 86 938.0
20260905014900 14 297 0.0 1.6 0.00 0.00 0.00 86 938.2
20260905014801 14 285 0.0 1.6 0.00 0.00 0.00 86 938.1
20260905014700 14 304 0.0 1.6 0.00 0.00 0.00 85 937.9
20260905014600 14 299 0.0 1.6 0.00 0.00 0.00 85 938.0
20260905014500 14 306 1.6 1.6 0.00 0.00 0.00 85 937.9
20260905014400 14 304 1.6 3.2 0.00 0.00 0.00 85 938.0
20260905014300 14 307 1.6 3.2 0.00 0.00 0.00 85 937.7
20260905014200 14 334 0.0 1.6 0.00 0.00 0.00 85 938.0
20260905014100 14 305 1.6 1.6 0.00 0.00 0.00 85 937.6
20260905014000 14 310 0.0 1.6 0.00 0.00 0.00 85 937.9
20260905013901 14 308 0.0 1.6 0.00 0.00 0.00 85 937.5
20260905013800 14 295 1.6 1.6 0.00 0.00 0.00 85 937.6
20260905013700 14 312 0.0 1.6 0.00 0.00 0.00 85 937.6
20260905013601 14 309 0.0 3.2 0.00 0.00 0.00 85 937.6
20260905013500 14 304 0.0 3.2 0.00 0.00 0.00 85 937.7
20260905013400 14 314 0.0 3.2 0.00 0.00 0.00 85 937.6
20260905013300 14 316 1.6 3.2 0.00 0.00 0.00 85 937.4
20260905013201 14 311 0.0 1.6 0.00 0.00 0.00 85 937.6
20260905013101 14 299 0.0 1.6 0.00 0.00 0.00 85 937.6
20260905013000 14 296 0.0 1.6 0.00 0.00 0.00 85 937.7
20260905012900 14 307 0.0 1.6 0.00 0.00 0.00 85 937.5
20260905012800 14 297 0.0 3.2 0.00 0.00 0.00 85 937.8
20260905012701 14 317 1.6 3.2 0.00 0.00 0.00 85 937.4
20260905012600 14 314 0.0 1.6 0.00 0.00 0.00 85 937.6
20260905012500 14 287 0.0 1.6 0.00 0.00 0.00 85 937.6
20260905012400 14 302 0.0 1.6 0.00 0.00 0.00 85 937.8
20260905012300 14 300 0.0 1.6 0.00 0.00 0.00 85 937.5
20260905012200 14 297 1.6 1.6 0.00 0.00 0.00 85 937.7
20260905012101 14 304 0.0 1.6 0.00 0.00 0.00 85 937.8
20260905012001 14 311 1.6 4.8 0.00 0.00 0.00 85 937.7
20260905011900 14 305 1.6 4.8 0.00 0.00 0.00 85 937.5
20260905011800 14 323 3.2 3.2 0.00 0.00 0.00 85 937.3
20260905011701 14 325 0.0 3.2 0.00 0.00 0.00 85 937.7
20260905011601 14 305 1.6 3.2 0.00 0.00 0.00 85 937.8
20260905011500 14 336 1.6 4.8 0.00 0.00 0.00 85 937.6
20260905011400 14 302 3.2 4.8 0.00 0.00 0.00 85 937.7
20260905011301 14 328 3.2 4.8 0.00 0.00 0.00 85 937.7
20260905011200 14 312 3.2 4.8 0.00 0.00 0.00 85 937.5
20260905011100 14 330 1.6 4.8 0.00 0.00 0.00 85 937.6
20260905011000 14 335 3.2 4.8 0.00 0.00 0.00 85 937.5
20260905010901 14 332 3.2 4.8 0.00 0.00 0.00 85 937.7
20260905010800 14 316 1.6 3.2 0.00 0.00 0.00 85 937.5
20260905010700 14 340 1.6 3.2 0.00 0.00 0.00 85 937.5
20260905010600 14 324 3.2 3.2 0.00 0.00 0.00 85 937.5
20260905010500 14 333 1.6 3.2 0.00 0.00 0.00 85 937.4
20260905010400 14 320 1.6 3.2 0.00 0.00 0.00 85 937.4
20260905010300 14 320 3.2 4.8 0.00 0.00 0.00 85 937.6
20260905010200 14 311 3.2 4.8 0.00 0.00 0.00 85 937.8
20260905010100 15 349 3.2 4.8 0.00 0.00 0.00 85 937.8
20260905010000 15 308 1.6 4.8 0.00 0.00 0.00 85 937.6
20260905005900 15 308 1.6 4.8 0.00 0.00 0.00 85 937.6
20260905005801 15 308 1.6 4.8 0.00 0.00 0.00 84 937.8
20260905005700 15 314 4.8 4.8 0.00 0.00 0.00 84 937.9
20260905005600 15 336 3.2 6.4 0.00 0.00 0.00 84 937.6
20260905005501 15 338 4.8 6.4 0.00 0.00 0.00 84 937.8
20260905005400 15 324 4.8 4.8 0.00 0.00 0.00 84 937.6
20260905005300 15 326 3.2 4.8 0.00 0.00 0.00 84 937.8
20260905005201 15 317 3.2 6.4 0.00 0.00 0.00 84 937.7
20260905005101 15 314 4.8 6.4 0.00 0.00 0.00 83 937.8
20260905005000 15 331 6.4 9.7 0.00 0.00 0.00 83 937.7
20260905004902 15 328 8.0 8.0 0.00 0.00 0.00 84 937.5
20260905004800 15 309 4.8 6.4 0.00 0.00 0.00 84 937.4
20260905004700 15 319 4.8 9.7 0.00 0.00 0.00 83 937.5
20260905004600 15 308 6.4 9.7 0.00 0.00 0.00 83 937.6
20260905004501 15 326 3.2 6.4 0.00 0.00 0.00 84 937.4
20260905004401 15 320 3.2 8.0 0.00 0.00 0.00 84 937.4
20260905004300 15 309 6.4 8.0 0.00 0.00 0.00 84 937.6
20260905004200 15 330 6.4 8.0 0.00 0.00 0.00 84 937.5
20260905004101 15 325 3.2 6.4 0.00 0.00 0.00 84 937.7
20260905004000 15 332 6.4 8.0 0.00 0.00 0.00 84 937.8
20260905003900 15 307 6.4 6.4 0.00 0.00 0.00 84 937.7
20260905003800 15 316 4.8 6.4 0.00 0.00 0.00 84 937.6
20260905003700 15 307 4.8 6.4 0.00 0.00 0.00 84 937.5
20260905003601 15 337 4.8 9.7 0.00 0.00 0.00 83 937.5
20260905003500 15 331 6.4 9.7 0.00 0.00 0.00 83 937.5
20260905003400 15 335 8.0 9.7 0.00 0.00 0.00 83 937.6
20260905003300 15 341 4.8 9.7 0.00 0.00 0.00 83 937.4
20260905003200 15 344 8.0 9.7 0.00 0.00 0.00 83 937.5
20260905003100 15 334 4.8 8.0 0.00 0.00 0.00 83 937.4
20260905003000 15 341 6.4 8.0 0.00 0.00 0.00 84 937.5
20260905002900 15 330 6.4 8.0 0.00 0.00 0.00 84 937.5
20260905002800 15 323 6.4 9.7 0.00 0.00 0.00 83 937.5
20260905002701 15 324 6.4 9.7 0.00 0.00 0.00 83 937.2
20260905002600 15 331 6.4 8.0 0.00 0.00 0.00 83 937.3
20260905002500 15 323 6.4 8.0 0.00 0.00 0.00 83 937.4
20260905002401 15 326 4.8 11.3 0.00 0.00 0.00 83 937.3
20260905002301 15 336 8.0 11.3 0.00 0.00 0.00 83 937.3
20260905002200 15 329 8.0 9.7 0.00 0.00 0.00 83 937.1
20260905002100 15 324 4.8 6.4 0.00 0.00 0.00 83 937.3
20260905002000 15 320 6.4 8.0 0.00 0.00 0.00 82 937.4
20260905001900 15 302 6.4 8.0 0.00 0.00 0.00 82 937.3
20260905001800 15 316 6.4 9.7 0.00 0.00 0.00 81 937.5
20260905001700 15 326 4.8 9.7 0.00 0.00 0.00 80 937.4
20260905001600 15 331 6.4 8.0 0.00 0.00 0.00 80 937.7
20260905001500 15 325 6.4 11.3 0.00 0.00 0.00 79 937.4
20260905001400 15 326 8.0 11.3 0.00 0.00 0.00 78 937.4
20260905001300 15 339 9.7 11.3 0.00 0.00 0.00 78 937.4
20260905001200 16 320 9.7 14.5 0.00 0.00 0.00 78 937.4
20260905001100 16 316 8.0 14.5 0.00 0.00 0.00 78 937.3
20260905001000 16 307 6.4 11.3 0.00 0.00 0.00 77 937.3
20260905000900 16 332 9.7 11.3 0.00 0.00 0.00 77 937.0
20260905000801 16 316 8.0 9.7 0.00 0.00 0.00 77 937.1
20260905000701 16 311 6.4 11.3 0.00 0.00 0.00 77 936.9
20260905000600 16 338 8.0 9.7 0.00 0.00 0.00 77 937.0
20260905000500 16 319 8.0 9.7 0.00 0.00 0.00 77 937.2
20260905000402 16 305 6.4 11.3 0.00 0.00 0.00 77 937.2
20260905000303 16 330 9.7 11.3 0.00 0.00 0.00 77 937.1
20260905000200 16 323 6.4 8.0 0.00 0.00 0.00 77 937.0
20260905000000 16 340 9.7 11.3 0.00 0.00 0.00 77 936.9
20260904235900 16 301 8.0 11.3 0.00 0.00 0.00 77 936.8
20260904235800 16 301 8.0 11.3 0.00 0.00 0.00 77 936.8
20260904235700 16 334 9.7 11.3 0.00 0.00 0.00 77 936.7
20260904235600 16 332 9.7 11.3 0.00 0.00 0.00 77 936.8
20260904235501 16 314 8.0 8.0 0.00 0.00 0.00 77 936.9
20260904235401 16 307 6.4 8.0 0.00 0.00 0.00 77 937.0
20260904235300 16 309 6.4 9.7 0.00 0.00 0.00 77 937.1
20260904235200 16 322 8.0 9.7 0.00 0.00 0.00 77 937.0
20260904235101 16 338 8.0 11.3 0.00 0.00 0.00 77 937.0
20260904235000 16 337 6.4 9.7 0.00 0.00 0.00 77 936.8
20260904234901 16 332 8.0 14.5 0.00 0.00 0.00 77 937.0
20260904234800 16 304 9.7 12.9 0.00 0.00 0.00 77 937.2
20260904234700 16 334 11.3 12.9 0.00 0.00 0.00 77 937.1
20260904234601 16 339 6.4 9.7 0.00 0.00 0.00 77 937.5
20260904234500 16 327 8.0 11.3 0.00 0.00 0.00 77 937.4
20260904234400 16 339 8.0 11.3 0.00 0.00 0.00 77 937.3
20260904234301 16 302 6.4 9.7 0.00 0.00 0.00 77 937.0
20260904234200 16 332 8.0 9.7 0.00 0.00 0.00 77 936.9
20260904234100 16 344 9.7 9.7 0.00 0.00 0.00 77 936.8
20260904234000 16 312 8.0 9.7 0.00 0.00 0.00 77 937.0
20260904233900 16 334 8.0 12.9 0.00 0.00 0.00 76 936.7
20260904233800 16 330 9.7 12.9 0.00 0.00 0.00 76 936.7
20260904233700 16 333 9.7 11.3 0.00 0.00 0.00 76 936.8
20260904233600 16 336 8.0 9.7 0.00 0.00 0.00 76 936.6
20260904233501 16 337 8.0 9.7 0.00 0.00 0.00 76 936.8
20260904233400 16 333 9.7 12.9 0.00 0.00 0.00 76 936.4
20260904233300 16 345 8.0 12.9 0.00 0.00 0.00 75 936.6
20260904233200 16 326 8.0 9.7 0.00 0.00 0.00 75 936.4
20260904233100 16 327 8.0 12.9 0.00 0.00 0.00 75 936.5
20260904233000 16 336 8.0 12.9 0.00 0.00 0.00 75 936.6
20260904232900 16 337 6.4 8.0 0.00 0.00 0.00 75 936.5
20260904232800 16 331 6.4 8.0 0.00 0.00 0.00 75 936.7
20260904232700 16 329 4.8 6.4 0.00 0.00 0.00 75 936.4
20260904232600 16 348 6.4 9.7 0.00 0.00 0.00 75 936.2
20260904232500 17 347 6.4 9.7 0.00 0.00 0.00 75 936.3
20260904232401 17 342 8.0 12.9 0.00 0.00 0.00 74 936.1
20260904232301 17 328 9.7 12.9 0.00 0.00 0.00 74 936.1
20260904232200 17 322 8.0 11.3 0.00 0.00 0.00 74 936.3
20260904232100 17 348 8.0 11.3 0.00 0.00 0.00 74 936.0
20260904232000 17 344 8.0 11.3 0.00 0.00 0.00 73 936.1
20260904231900 17 324 8.0 9.7 0.00 0.00 0.00 73 936.0
20260904231800 17 330 8.0 9.7 0.00 0.00 0.00 73 935.9
20260904231700 17 310 8.0 8.0 0.00 0.00 0.00 73 936.0
20260904231601 17 339 6.4 8.0 0.00 0.00 0.00 73 935.9
20260904231500 17 338 6.4 8.0 0.00 0.00 0.00 73 935.9
20260904231400 17 340 4.8 6.4 0.00 0.00 0.00 72 935.9
20260904231301 17 316 4.8 8.0 0.00 0.00 0.00 73 935.9
20260904231201 18 326 8.0 9.7 0.00 0.00 0.00 72 936.0
20260904231100 18 316 9.7 9.7 0.00 0.00 0.00 72 935.8
20260904231000 18 334 6.4 8.0 0.00 0.00 0.00 72 935.7
20260904230901 18 314 6.4 8.0 0.00 0.00 0.00 72 936.0
20260904230800 18 332 6.4 8.0 0.00 0.00 0.00 71 935.9
20260904230700 18 340 6.4 9.7 0.00 0.00 0.00 71 935.8
20260904230601 19 338 6.4 9.7 0.00 0.00 0.00 69 935.9
20260904230500 20 309 9.7 9.7 0.00 0.00 0.00 68 935.6
20260904230400 20 314 6.4 8.0 0.00 0.00 0.00 68 935.8
20260904230300 20 309 6.4 6.4 0.00 0.00 0.00 68 935.7
20260904230200 20 330 3.2 6.4 0.00 0.00 0.00 67 935.6
20260904230100 20 314 4.8 6.4 0.00 0.00 0.00 67 935.4
20260904230004 20 312 3.2 6.4 0.00 0.00 0.00 67 935.5
20260904225900 20 316 3.2 4.8 0.00 0.00 0.00 66 935.4
20260904225800 20 342 3.2 4.8 0.00 0.00 0.00 66 935.6
20260904225700 20 342 3.2 4.8 0.00 0.00 0.00 66 935.6
20260904225600 20 314 3.2 4.8 0.00 0.00 0.00 65 935.2
20260904225500 20 305 1.6 4.8 0.00 0.00 0.00 65 935.3
20260904225400 20 324 3.2 3.2 0.00 0.00 0.00 64 935.5
20260904225300 21 308 1.6 3.2 0.00 0.00 0.00 64 935.5
20260904225201 21 318 1.6 1.6 0.00 0.00 0.00 63 935.4
20260904225100 21 297 1.6 1.6 0.00 0.00 0.00 62 935.4
20260904225000 21 304 0.0 1.6 0.00 0.00 0.00 62 935.3
20260904224900 21 304 1.6 1.6 0.00 0.00 0.00 62 935.1
20260904224800 21 304 0.0 1.6 0.00 0.00 0.00 62 935.1
20260904224700 21 300 0.0 1.6 0.00 0.00 0.00 62 935.0
20260904224600 21 300 0.0 1.6 0.00 0.00 0.00 62 935.0
20260904224500 21 300 0.0 1.6 0.00 0.00 0.00 62 935.1
20260904224400 21 300 0.0 1.6 0.00 0.00 0.00 61 935.0
20260904224301 21 300 0.0 1.6 0.00 0.00 0.00 61 934.9
20260904224200 21 300 0.0 1.6 0.00 0.00 0.00 61 935.0
20260904224100 21 300 0.0 1.6 0.00 0.00 0.00 61 934.9
20260904224001 21 300 0.0 1.6 0.00 0.00 0.00 61 935.2
20260904223901 21 300 0.0 1.6 0.00 0.00 0.00 61 935.0
20260904223800 21 300 0.0 1.6 0.00 0.00 0.00 61 935.0
20260904223701 21 300 0.0 1.6 0.00 0.00 0.00 61 935.1
20260904223600 21 298 1.6 1.6 0.00 0.00 0.00 61 935.1
20260904223500 21 299 1.6 1.6 0.00 0.00 0.00 61 935.0
20260904223400 21 299 1.6 1.6 0.00 0.00 0.00 61 935.0
20260904223301 21 298 0.0 1.6 0.00 0.00 0.00 61 935.0
20260904223201 21 294 0.0 1.6 0.00 0.00 0.00 61 934.9
20260904223100 21 294 0.0 1.6 0.00 0.00 0.00 61 935.0
20260904223001 21 294 0.0 1.6 0.00 0.00 0.00 61 934.6
20260904222900 21 294 0.0 1.6 0.00 0.00 0.00 61 935.1
20260904222800 21 294 0.0 1.6 0.00 0.00 0.00 61 935.0
20260904222700 21 294 0.0 1.6 0.00 0.00 0.00 61 934.8
20260904222600 21 294 0.0 1.6 0.00 0.00 0.00 61 935.2
20260904222500 21 294 0.0 1.6 0.00 0.00 0.00 61 935.0
20260904222401 21 294 1.6 1.6 0.00 0.00 0.00 61 935.0
20260904222300 21 271 0.0 1.6 0.00 0.00 0.00 61 934.8
20260904222200 21 271 0.0 1.6 0.00 0.00 0.00 61 934.8
20260904222100 21 271 0.0 1.6 0.00 0.00 0.00 61 934.8
20260904222001 21 264 0.0 1.6 0.00 0.00 0.00 61 934.8
20260904221900 21 264 0.0 1.6 0.00 0.00 0.00 61 934.8
20260904221800 21 228 1.6 1.6 0.00 0.00 0.00 61 935.0
20260904221700 21 228 1.6 1.6 0.00 0.00 0.00 61 934.7
20260904221600 21 297 0.0 1.6 0.00 0.00 0.00 61 935.0
20260904221500 20 297 0.0 1.6 0.00 0.00 0.00 61 934.9
20260904221401 20 278 0.0 1.6 0.00 0.00 0.00 62 934.9
20260904221300 20 268 0.0 1.6 0.00 0.00 0.00 62 934.7
20260904221200 20 234 0.0 1.6 0.00 0.00 0.00 62 934.8
20260904221100 20 233 0.0 1.6 0.00 0.00 0.00 62 935.0
20260904221001 20 233 0.0 1.6 0.00 0.00 0.00 62 934.8
20260904220901 20 230 0.0 0.0 0.00 0.00 0.00 62 934.7
20260904220801 20 230 0.0 0.0 0.00 0.00 0.00 61 934.8
20260904220701 21 225 0.0 0.0 0.00 0.00 0.00 61 934.5
20260904220601 21 188 0.0 0.0 0.00 0.00 0.00 61 934.7
20260904220501 21 188 0.0 1.6 0.00 0.00 0.00 61 934.9
20260904220400 21 188 0.0 3.2 0.00 0.00 0.00 61 934.8
20260904220301 21 208 0.0 3.2 0.00 0.00 0.00 61 934.8
20260904220200 21 225 0.0 1.6 0.00 0.00 0.00 61 934.8
20260904220100 21 225 0.0 1.6 0.00 0.00 0.00 61 934.7
20260904220001 21 223 1.6 1.6 0.00 0.00 0.00 61 934.7
20260904215900 21 224 0.0 4.8 0.00 0.00 0.00 61 934.5
20260904215800 21 225 3.2 4.8 0.00 0.00 0.00 61 934.7
20260904215700 21 212 1.6 3.2 0.00 0.00 0.00 61 934.6
20260904215600 21 212 1.6 3.2 0.00 0.00 0.00 61 934.6
20260904215500 21 220 1.6 3.2 0.00 0.00 0.00 61 934.6
20260904215400 21 229 1.6 3.2 0.00 0.00 0.00 61 934.8
20260904215300 21 216 1.6 3.2 0.00 0.00 0.00 61 934.9
20260904215200 21 225 1.6 3.2 0.00 0.00 0.00 61 934.8
20260904215100 21 229 1.6 3.2 0.00 0.00 0.00 61 934.8
20260904215000 21 229 0.0 3.2 0.00 0.00 0.00 61 934.5
20260904214900 21 212 1.6 4.8 0.00 0.00 0.00 61 934.7
20260904214800 21 212 3.2 4.8 0.00 0.00 0.00 61 934.5
20260904214700 21 216 1.6 3.2 0.00 0.00 0.00 61 934.8
20260904214600 21 186 1.6 3.2 0.00 0.00 0.00 61 934.7
20260904214500 21 238 0.0 1.6 0.00 0.00 0.00 61 934.5
20260904214400 21 221 0.0 1.6 0.00 0.00 0.00 61 934.7
20260904214300 21 221 1.6 1.6 0.00 0.00 0.00 61 934.7
20260904214201 21 232 0.0 3.2 0.00 0.00 0.00 61 934.7
20260904214100 21 227 1.6 3.2 0.00 0.00 0.00 61 934.6
20260904214000 21 227 1.6 3.2 0.00 0.00 0.00 60 934.6
20260904213900 21 222 0.0 3.2 0.00 0.00 0.00 60 934.6
20260904213800 21 252 1.6 3.2 0.00 0.00 0.00 60 934.8
20260904213700 21 229 1.6 3.2 0.00 0.00 0.00 60 934.6
20260904213601 21 213 1.6 3.2 0.00 0.00 0.00 60 934.8
20260904213500 21 223 1.6 3.2 0.00 0.00 0.00 60 934.8
20260904213400 21 202 1.6 3.2 0.00 0.00 0.00 60 934.5
20260904213300 21 227 1.6 3.2 0.00 0.00 0.00 60 934.6
20260904213200 21 218 1.6 3.2 0.00 0.00 0.00 60 934.8
20260904213100 21 198 3.2 3.2 0.00 0.00 0.00 60 934.6
20260904213000 21 213 3.2 3.2 0.00 0.00 0.00 60 934.5
20260904212900 21 237 3.2 3.2 0.00 0.00 0.00 60 934.7
20260904212801 21 210 3.2 3.2 0.00 0.00 0.00 60 934.7
20260904212700 21 213 3.2 3.2 0.00 0.00 0.00 60 934.4
20260904212600 21 212 1.6 4.8 0.00 0.00 0.00 60 934.5
20260904212500 21 190 1.6 4.8 0.00 0.00 0.00 60 934.4
20260904212400 21 213 3.2 3.2 0.00 0.00 0.00 60 934.8
20260904212300 21 226 1.6 3.2 0.00 0.00 0.00 60 934.6
20260904212200 21 187 1.6 4.8 0.00 0.00 0.00 60 934.7
20260904212100 21 223 3.2 4.8 0.00 0.00 0.00 60 934.9
20260904212000 21 207 3.2 4.8 0.00 0.00 0.00 60 934.6
20260904211900 21 199 3.2 4.8 0.00 0.00 0.00 60 934.7
20260904211800 21 204 1.6 4.8 0.00 0.00 0.00 60 934.7
20260904211700 21 199 3.2 4.8 0.00 0.00 0.00 60 934.6
20260904211600 21 212 3.2 4.8 0.00 0.00 0.00 60 934.7
20260904211500 21 218 3.2 4.8 0.00 0.00 0.00 60 934.5
20260904211400 21 211 3.2 4.8 0.00 0.00 0.00 59 934.7
20260904211301 21 204 3.2 4.8 0.00 0.00 0.00 59 934.7
20260904211200 21 215 3.2 4.8 0.00 0.00 0.00 59 934.7
20260904211100 21 206 3.2 4.8 0.00 0.00 0.00 59 934.7
20260904211001 21 204 1.6 4.8 0.00 0.00 0.00 59 934.6
20260904210900 21 208 3.2 4.8 0.00 0.00 0.00 60 934.6
20260904210800 21 206 3.2 3.2 0.00 0.00 0.00 60 934.7
20260904210700 21 215 1.6 3.2 0.00 0.00 0.00 60 934.7
20260904210600 21 212 1.6 4.8 0.00 0.00 0.00 60 934.5
20260904210501 21 224 3.2 4.8 0.00 0.00 0.00 59 934.7
20260904210400 21 210 3.2 4.8 0.00 0.00 0.00 60 934.6
20260904210301 21 228 3.2 4.8 0.00 0.00 0.00 60 934.4
20260904210200 21 190 3.2 3.2 0.00 0.00 0.00 60 934.7
20260904210101 21 206 3.2 3.2 0.00 0.00 0.00 60 934.5
20260904210000 21 198 1.6 3.2 0.00 0.00 0.00 60 934.7
20260904205900 21 211 3.2 4.8 0.00 0.00 0.00 60 934.6
20260904205800 21 194 3.2 4.8 0.00 0.00 0.00 60 934.6
20260904205700 21 209 3.2 4.8 0.00 0.00 0.00 60 934.7
20260904205600 21 200 1.6 3.2 0.00 0.00 0.00 60 934.6
20260904205501 21 200 1.6 3.2 0.00 0.00 0.00 60 934.6
20260904205401 21 198 1.6 3.2 0.00 0.00 0.00 60 934.8
20260904205300 21 208 3.2 3.2 0.00 0.00 0.00 60 934.6
20260904205200 21 203 3.2 4.8 0.00 0.00 0.00 59 934.7
20260904205100 21 190 4.8 4.8 0.00 0.00 0.00 59 934.5
20260904205000 21 188 1.6 6.4 0.00 0.00 0.00 59 934.9
20260904204900 21 215 3.2 6.4 0.00 0.00 0.00 59 934.6
20260904204800 21 192 3.2 4.8 0.00 0.00 0.00 59 934.4
20260904204700 21 207 3.2 3.2 0.00 0.00 0.00 59 934.5
20260904204600 21 205 3.2 4.8 0.00 0.00 0.00 59 934.9
20260904204500 21 221 3.2 4.8 0.00 0.00 0.00 59 934.7
20260904204400 21 195 3.2 4.8 0.00 0.00 0.00 59 934.6
20260904204301 21 201 3.2 4.8 0.00 0.00 0.00 59 934.9
20260904204200 21 187 3.2 4.8 0.00 0.00 0.00 59 934.7
20260904204100 21 207 3.2 4.8 0.00 0.00 0.00 58 934.6
20260904204000 21 179 3.2 4.8 0.00 0.00 0.00 58 934.9
20260904203901 21 218 3.2 4.8 0.00 0.00 0.00 58 934.7
20260904203801 21 210 3.2 3.2 0.00 0.00 0.00 58 934.7
20260904203700 21 216 1.6 3.2 0.00 0.00 0.00 58 934.8
20260904203600 21 216 3.2 4.8 0.00 0.00 0.00 58 934.9
20260904203500 21 204 3.2 4.8 0.00 0.00 0.00 58 935.0
20260904203400 21 210 3.2 4.8 0.00 0.00 0.00 58 934.6
20260904203300 21 207 1.6 3.2 0.00 0.00 0.00 58 934.8
20260904203201 21 204 3.2 3.2 0.00 0.00 0.00 58 934.8
20260904203100 21 217 3.2 3.2 0.00 0.00 0.00 58 934.8
20260904203001 21 213 1.6 4.8 0.00 0.00 0.00 58 934.9
20260904202900 21 214 3.2 4.8 0.00 0.00 0.00 58 935.1
20260904202800 21 208 3.2 4.8 0.00 0.00 0.00 58 934.9
20260904202700 21 222 1.6 4.8 0.00 0.00 0.00 58 935.1
20260904202600 21 214 1.6 4.8 0.00 0.00 0.00 58 934.9
20260904202500 21 211 3.2 3.2 0.00 0.00 0.00 58 934.9
20260904202401 21 216 3.2 3.2 0.00 0.00 0.00 58 934.8
20260904202300 21 211 3.2 4.8 0.00 0.00 0.00 58 934.8
20260904202200 21 209 3.2 4.8 0.00 0.00 0.00 58 934.8
20260904202100 21 215 3.2 4.8 0.00 0.00 0.00 58 934.9
20260904202001 21 202 3.2 4.8 0.00 0.00 0.00 58 935.1
20260904201900 21 213 1.6 3.2 0.00 0.00 0.00 58 935.0
20260904201800 21 208 3.2 4.8 0.00 0.00 0.00 58 935.0
20260904201700 21 212 3.2 4.8 0.00 0.00 0.00 58 934.9
20260904201600 21 213 3.2 4.8 0.00 0.00 0.00 58 934.8
20260904201500 21 209 3.2 3.2 0.00 0.00 0.00 58 934.9
20260904201400 21 199 1.6 3.2 0.00 0.00 0.00 58 935.0
20260904201301 21 199 1.6 4.8 0.00 0.00 0.00 58 934.8
20260904201200 21 222 1.6 4.8 0.00 0.00 0.00 57 934.9
20260904201100 21 211 3.2 4.8 0.00 0.00 0.00 58 934.9
20260904201000 21 219 3.2 4.8 0.00 0.00 0.00 58 935.1
20260904200901 21 195 3.2 3.2 0.00 0.00 0.00 58 934.8
20260904200800 21 209 3.2 3.2 0.00 0.00 0.00 58 934.9
20260904200701 21 222 3.2 3.2 0.00 0.00 0.00 58 934.9
20260904200600 21 203 3.2 3.2 0.00 0.00 0.00 58 934.9
20260904200500 21 215 3.2 3.2 0.00 0.00 0.00 58 934.9
20260904200401 21 215 3.2 3.2 0.00 0.00 0.00 58 935.1
20260904200300 21 209 1.6 3.2 0.00 0.00 0.00 58 934.9
20260904200200 21 203 1.6 4.8 0.00 0.00 0.00 58 934.9
20260904200101 21 210 3.2 4.8 0.00 0.00 0.00 58 934.9
20260904200000 21 212 3.2 4.8 0.00 0.00 0.00 58 935.0
20260904195901 21 210 3.2 4.8 0.00 0.00 0.00 58 935.1